GFSSW_250_rhum_141.txt.gz
RH
100 100 100 100 93 78 69 69 71 74 75 90 99 86 80 78 80 78 68 45 33 33 30 28 36 38 38 33 23 14 15 21 34 58 59 95 73 37 34 38 28 23 20 22 34
58 62 71 93 100 95 85 79 83 78 73 97 100 84 100 100 100 84 57 51 37 31 33 37 35 36 34 40 28 19 12 26 42 55 63 72 62 44 37 38 31 19 26 25 28
56 65 83 100 99 73 86 100 98 88 79 98 100 100 100 100 97 73 64 42 41 37 35 35 39 38 34 35 34 24 15 22 37 45 62 66 56 50 37 43 38 28 24 27 29
65 87 100 100 85 80 96 100 94 99 98 100 100 95 100 100 92 72 52 49 36 27 32 35 29 35 32 33 38 24 25 15 33 43 52 54 68 59 49 58 45 26 25 30 26
64 84 97 100 95 98 93 100 99 100 100 100 100 91 100 93 80 61 40 36 32 33 33 35 27 29 31 33 34 31 35 21 23 35 48 48 65 68 50 62 49 34 25 33 33
83 82 93 100 96 100 100 99 98 100 100 100 95 98 99 100 75 45 41 28 28 35 35 28 23 23 27 30 31 44 39 29 20 28 46 47 53 66 62 75 56 51 23 36 39
84 78 86 89 100 100 96 98 100 100 100 100 100 99 100 88 48 36 31 32 30 22 28 22 20 16 22 30 34 41 32 33 21 24 37 60 42 55 82 86 73 66 27 40 45
84 72 82 88 100 99 99 98 92 100 100 99 100 97 95 69 45 33 34 39 29 17 22 15 14 11 21 32 37 37 35 27 42 28 29 46 52 85 78 72 84 71 48 42 48
80 83 78 86 86 93 100 99 100 100 100 95 76 76 95 52 35 33 34 30 14 14 16 11 10 11 22 31 35 30 37 39 83 30 26 29 58 99 71 59 64 73 57 41 52
90 91 82 80 85 99 100 100 100 98 80 95 100 84 48 35 33 33 26 15 10 13 10 10 9 12 19 21 32 28 38 36 56 45 28 23 35 65 78 57 50 63 71 46 44
80 82 82 87 100 100 100 100 99 94 90 100 68 54 49 33 35 24 14 11 10 10 9 9 10 13 20 18 24 22 28 32 44 54 34 20 24 36 73 71 49 51 71 48 55
69 82 86 96 98 100 100 90 100 95 96 79 75 40 42 38 25 12 11 10 10 10 10 10 11 13 16 18 20 19 21 38 50 56 42 28 25 19 44 58 48 47 59 57 54
70 79 84 95 96 97 82 100 94 76 72 79 76 40 32 30 17 10 10 9 9 9 8 10 12 11 14 17 20 18 18 55 50 45 44 39 31 16 29 49 57 48 49 51 40
68 79 78 83 92 95 80 85 64 94 89 92 50 30 38 32 13 9 8 8 7 7 7 9 11 11 11 13 15 15 19 25 36 38 30 41 29 18 20 28 54 70 51 46 48
72 78 84 75 87 81 70 70 90 85 82 69 35 34 42 23 9 8 6 5 4 4 5 7 7 9 10 11 12 19 15 15 25 25 35 39 24 26 19 25 41 49 62 52 52
77 84 79 74 77 61 68 74 86 95 70 60 38 46 49 14 8 6 4 3 3 3 3 4 5 7 9 8 9 12 14 12 15 21 20 38 21 48 23 20 44 67 70 63 61
82 78 68 76 59 62 73 56 73 65 66 50 53 49 42 12 8 5 3 2 3 3 3 3 3 4 6 7 7 7 9 11 10 15 14 40 25 38 36 24 29 63 91 79 68
77 69 69 75 61 60 77 64 61 80 93 62 53 59 32 12 7 4 3 3 3 4 5 4 4 3 3 5 7 6 8 9 9 9 15 28 16 24 69 32 27 51 86 80 92
76 59 60 63 56 62 62 58 84 92 93 67 62 58 30 9 5 3 3 3 4 4 5 6 7 4 3 2 5 8 7 14 11 11 12 16 14 45 50 35 25 38 74 87 85
63 56 60 58 64 69 74 74 92 96 84 70 64 56 36 9 5 3 4 4 4 5 5 5 7 5 2 2 2 5 6 8 9 11 10 14 19 32 36 45 27 31 53 91 90
56 56 52 57 67 79 78 87 100 100 100 70 59 55 37 8 4 4 5 5 5 5 4 5 6 8 4 2 2 3 5 5 8 9 11 15 19 35 44 50 39 23 38 96 100
52 52 53 58 78 71 73 100 100 100 96 76 69 52 31 8 4 4 6 5 5 5 5 5 6 6 4 2 2 3 5 5 6 7 10 12 20 32 37 43 44 30 29 55 100
51 51 52 76 73 63 71 100 100 99 100 70 64 53 25 8 3 4 6 6 5 5 5 6 6 6 4 3 2 2 3 4 4 7 8 8 26 23 23 27 42 42 28 38 100
60 44 54 77 81 73 82 100 100 100 100 82 60 50 20 6 3 4 6 6 5 5 5 6 5 6 4 3 2 2 3 3 4 6 8 13 15 15 16 20 34 52 29 33 94
56 52 58 76 80 83 93 100 100 100 97 74 58 46 15 7 4 5 6 6 6 5 5 5 5 6 3 2 2 2 2 3 4 8 11 14 14 11 14 22 33 39 38 34 48
59 54 56 75 83 96 97 100 100 100 92 78 43 30 10 6 4 6 7 6 6 5 5 5 5 6 3 2 3 2 3 3 6 11 13 16 14 12 12 19 39 41 39 32 31
58 53 54 80 89 97 100 100 100 100 100 80 47 22 8 6 4 6 7 6 6 6 5 5 5 6 3 2 3 3 3 4 7 12 16 16 15 12 12 17 36 38 34 29 31

GFSSW_250_rhum_144.txt.gz
RH
67 67 71 92 100 94 87 66 71 77 74 72 88 100 100 88 95 94 94 89 65 50 34 28 22 19 18 20 27 33 29 29 18 18 36 69 53 62 47 59 48 36 24 23 26
53 59 67 76 78 80 84 83 98 100 99 100 100 99 100 100 100 100 87 81 73 50 40 27 23 20 21 26 23 30 31 39 37 18 24 51 46 50 49 40 58 39 32 22 26
81 77 81 80 75 86 88 94 98 97 100 100 100 100 100 100 92 92 89 77 58 40 33 28 24 21 26 25 29 26 29 46 38 28 16 32 34 40 41 44 62 57 33 30 22
82 87 86 79 82 86 86 85 99 100 100 100 100 100 100 95 100 71 74 56 45 32 26 25 30 29 30 30 30 25 30 32 42 35 21 19 28 26 30 51 62 66 43 35 23
90 94 89 90 92 80 78 83 96 99 100 98 88 92 98 100 100 88 74 69 40 29 25 24 28 27 27 26 23 21 28 28 36 42 30 19 20 24 25 47 57 78 50 39 34
70 78 82 93 92 87 94 97 100 99 96 85 78 96 80 98 85 70 65 43 30 23 22 30 27 20 20 20 16 18 23 24 32 35 39 25 18 18 24 42 52 66 55 41 38
70 74 92 89 79 87 100 100 100 100 99 89 97 99 94 85 63 58 44 35 28 25 28 27 24 14 13 11 12 16 19 21 27 34 41 35 21 13 31 35 44 52 53 43 36
72 71 82 78 86 84 100 100 99 92 99 91 93 88 84 77 64 48 35 31 28 28 30 20 14 9 8 8 12 17 16 19 37 42 46 45 22 19 19 27 40 43 44 45 44
67 68 75 73 76 80 98 92 82 89 93 86 85 80 67 72 66 44 37 40 30 32 21 12 8 8 7 9 15 20 19 20 48 32 32 25 24 29 13 24 37 45 33 46 53
70 66 66 69 74 83 87 84 78 86 80 86 89 73 76 87 44 29 33 36 36 24 13 8 7 8 8 9 13 14 15 18 27 33 38 37 34 44 18 21 28 48 30 42 56
56 58 60 68 80 82 79 86 74 89 82 87 79 88 67 54 40 33 37 35 36 11 9 8 8 7 8 8 9 10 11 13 17 34 41 29 50 44 21 16 29 36 36 30 58
47 44 55 64 74 82 88 74 79 81 81 89 88 62 76 59 51 37 33 37 27 8 7 6 6 6 7 7 8 9 11 16 17 36 40 36 48 32 28 15 21 35 39 31 56
36 33 36 56 69 72 86 76 74 75 73 84 59 43 51 60 47 32 37 34 21 6 5 4 4 5 6 7 8 10 11 13 19 28 34 34 34 34 35 21 17 29 41 40 48
30 30 29 42 64 67 82 72 71 73 83 67 49 51 64 69 45 43 40 30 13 4 3 3 3 3 4 6 7 9 10 11 19 32 42 44 35 36 42 31 18 20 32 38 64
27 28 26 30 48 64 78 65 63 77 79 66 61 38 70 67 48 46 31 20 8 3 3 3 3 3 3 4 5 8 8 10 19 26 37 39 32 33 37 38 29 21 30 39 52
25 26 27 28 45 73 63 61 66 74 72 62 52 71 88 79 55 41 24 12 5 3 4 4 5 4 4 4 4 6 8 9 13 22 23 40 26 39 34 47 48 32 26 50 38
26 27 28 28 51 61 58 62 62 77 82 62 56 94 80 74 74 41 15 8 4 3 5 6 5 5 6 4 3 4 6 8 9 14 17 29 18 46 38 52 52 43 28 40 48
23 25 26 30 55 58 61 59 61 74 62 60 58 100 96 88 68 55 13 7 3 3 5 7 6 5 6 5 3 2 4 7 9 9 12 19 15 37 64 44 49 43 34 29 41
21 25 25 34 49 58 59 59 60 70 64 52 84 100 90 73 60 50 17 7 3 3 5 7 7 6 5 5 5 3 3 6 7 9 9 15 17 23 62 47 60 62 47 32 31
20 23 24 31 49 57 60 58 67 69 70 67 87 100 85 72 57 42 22 7 4 4 5 7 8 7 6 4 5 6 4 3 5 11 9 13 17 18 44 61 45 64 47 39 30
19 21 26 34 52 56 60 60 63 69 71 65 98 100 82 79 50 39 16 6 3 5 5 6 7 8 6 4 5 6 5 2 2 5 7 10 17 28 31 64 46 46 62 42 29
18 22 23 43 57 57 56 60 60 75 71 61 100 100 100 77 64 31 11 6 3 4 6 6 7 7 5 5 5 4 6 3 2 3 6 7 20 24 18 32 40 32 48 58 39
19 21 26 58 56 59 56 57 63 84 70 66 100 100 98 73 51 29 9 6 4 5 6 6 5 5 5 5 5 5 5 3 2 2 4 7 14 16 16 22 34 36 38 51 45
22 26 42 72 63 64 61 56 68 80 67 78 100 100 100 82 51 24 9 6 4 5 6 7 6 5 4 5 5 5 5 3 2 2 3 6 9 9 13 19 25 33 36 49 49
28 50 58 69 64 66 61 59 76 72 78 85 100 100 98 90 67 25 9 6 4 6 6 7 6 5 4 5 5 5 5 3 2 2 3 5 9 9 11 15 19 26 30 40 50
46 51 65 60 70 64 60 63 82 73 77 90 100 100 100 88 71 39 9 5 4 6 6 7 6 5 4 5 6 5 3 3 2 3 3 4 9 10 10 12 16 26 30 34 45
45 64 62 65 67 61 59 74 78 72 82 100 95 100 100 82 58 42 10 6 5 7 6 5 7 6 4 5 6 4 2 3 3 3 3 5 8 11 12 14 15 20 30 27 37

GFSSW_250_rhum_150.txt.gz
RH
61 68 60 53 56 65 59 61 65 67 78 95 100 100 95 76 61 59 64 90 87 84 80 77 71 72 64 59 51 41 30 21 31 30 26 30 30 43 31 28 29 15 24 33 34
54 70 67 51 44 44 58 65 68 66 81 88 85 80 78 67 59 68 77 90 90 78 76 73 69 72 65 54 43 38 28 29 31 29 22 25 30 31 28 27 25 20 14 24 27
50 49 45 45 39 38 49 55 58 61 67 70 66 64 63 74 81 75 89 90 86 78 79 89 77 78 66 60 55 39 29 32 29 22 22 23 30 36 30 28 26 22 15 16 22
39 40 41 38 36 38 47 48 53 55 56 60 62 64 66 72 84 83 78 73 76 77 89 85 88 81 57 47 41 32 29 29 27 21 19 18 27 33 32 31 29 22 16 14 18
36 34 38 38 36 37 45 52 52 44 43 41 46 43 50 55 77 74 74 78 79 86 85 92 71 63 54 44 34 27 33 27 23 16 15 18 22 31 35 31 31 26 19 14 15
35 36 42 42 38 37 43 50 48 43 37 34 30 29 30 35 63 79 76 78 83 82 87 78 67 55 42 33 28 20 20 20 18 15 12 14 21 23 36 30 27 21 20 15 14
41 40 37 39 45 37 44 48 44 41 39 32 30 28 27 29 45 73 77 83 85 84 76 65 59 49 39 34 16 10 10 12 14 13 12 13 13 17 43 33 26 23 19 20 15
32 36 39 33 40 45 41 42 40 38 39 32 32 29 29 27 35 71 84 82 83 76 63 56 51 43 39 18 8 7 9 8 8 12 14 14 14 34 41 24 25 21 19 19 19
25 28 26 21 22 33 35 34 42 44 39 35 34 29 25 30 33 50 70 74 74 65 53 46 50 48 33 9 5 5 6 6 7 11 15 10 14 19 28 25 21 23 19 19 23
21 23 22 20 17 18 26 27 26 32 35 35 30 27 25 24 26 52 67 69 63 52 49 50 50 45 20 6 4 4 3 4 6 8 12 10 13 20 26 29 28 26 13 13 20
17 18 19 18 16 15 16 21 22 20 18 18 20 21 22 23 36 62 68 59 52 52 45 46 50 42 11 5 3 2 2 2 3 5 5 6 10 19 24 29 31 33 28 18 20
14 14 14 15 16 16 17 22 20 15 15 17 18 20 22 27 50 67 59 50 51 47 44 49 57 37 8 4 2 2 2 2 2 4 5 7 8 16 22 26 34 40 34 25 24
15 17 17 16 15 17 18 18 16 16 16 17 18 20 24 42 57 60 50 50 49 44 46 51 55 30 7 3 3 3 3 3 3 3 5 7 8 11 15 21 30 44 49 33 24
17 20 20 20 20 20 19 18 18 16 15 16 20 21 29 57 61 60 50 46 44 41 48 53 54 27 7 3 4 4 4 3 3 3 5 7 9 10 12 17 27 47 63 50 31
24 22 23 22 22 21 22 22 19 18 16 18 20 25 47 69 62 53 49 46 42 44 50 53 51 23 7 4 4 5 5 4 3 4 4 7 10 10 12 18 32 49 63 58 34
28 24 23 23 24 24 23 21 19 18 19 20 22 32 78 72 60 50 46 39 40 49 60 62 43 20 8 4 5 5 6 5 5 4 4 5 10 14 12 14 27 48 56 57 42
26 24 26 25 23 23 23 20 20 20 20 21 24 64 86 66 55 52 44 42 48 52 71 61 44 18 8 4 6 6 6 6 6 6 4 4 9 17 10 15 26 37 47 52 48
26 25 27 24 22 21 20 19 22 22 24 27 42 82 71 60 55 54 51 46 50 80 62 46 48 18 8 5 6 6 6 6 7 6 6 4 8 16 15 12 16 26 35 40 47
31 32 27 21 20 19 17 19 22 23 25 37 62 76 66 51 53 58 48 53 57 83 61 48 49 20 9 5 5 7 6 6 7 7 7 5 5 13 11 12 20 27 31 42 53
28 22 20 19 18 16 18 29 32 32 39 55 72 70 52 50 56 53 55 56 88 77 69 47 44 19 9 6 5 7 7 7 6 7 7 6 4 10 14 12 18 27 34 43 62
23 23 20 19 16 18 33 41 45 46 56 77 73 56 51 61 69 65 58 68 87 70 57 49 38 18 10 7 5 6 6 7 7 5 6 6 3 8 12 13 16 27 38 39 51
22 20 20 18 17 28 46 48 49 76 92 74 58 53 64 80 72 58 62 92 71 66 48 48 32 15 10 7 5 6 6 7 6 5 6 5 4 4 8 12 10 18 32 39 39
19 20 19 21 30 39 46 46 70 92 78 57 59 73 86 88 68 57 81 91 70 68 48 48 25 15 9 7 6 6 5 6 6 5 5 7 7 2 5 8 8 11 20 32 35
17 18 19 34 36 41 50 86 84 76 72 59 78 91 93 78 63 68 85 81 75 77 60 50 24 13 10 6 6 6 5 6 6 5 6 8 5 2 4 6 9 9 11 19 30
15 18 28 37 39 43 66 78 79 75 89 80 100 92 80 72 72 86 82 81 69 54 57 49 26 12 10 7 7 6 6 6 6 5 6 6 5 4 4 5 8 9 9 11 17
22 23 40 71 64 73 88 96 89 92 95 85 84 85 77 72 72 72 65 56 54 51 50 46 24 10 10 7 7 6 4 6 6 5 5 5 5 4 4 3 6 9 8 9 12
26 39 65 100 81 82 100 99 99 95 98 75 76 72 72 68 68 65 60 52 48 50 44 42 18 9 10 6 8 6 4 6 6 5 6 5 6 4 4 3 5 7 9 9 12

GFSSW_250_rhum_153.txt.gz
RH
58 53 51 54 50 46 43 39 38 43 49 60 65 72 70 63 63 58 52 54 55 64 71 82 82 79 80 88 76 76 60 61 85 59 49 39 36 41 41 33 26 20 22 24 22
46 46 46 41 40 40 39 36 35 40 51 59 57 49 46 47 47 44 38 36 36 45 60 74 75 73 79 88 85 80 69 81 73 64 55 34 34 39 40 34 29 20 19 23 24
46 43 39 35 33 34 36 35 38 40 46 50 49 43 40 38 32 29 28 28 28 30 51 76 77 79 86 84 92 84 75 70 66 59 43 34 33 38 42 44 33 25 18 20 21
43 43 41 38 35 36 43 44 40 38 38 43 45 44 39 33 27 28 30 29 27 29 38 44 52 78 83 87 83 69 64 60 57 46 32 30 29 19 24 34 38 31 18 17 21
36 36 35 35 37 36 38 40 47 46 38 41 45 44 38 33 32 33 34 34 29 28 29 27 60 77 74 70 56 50 50 49 48 35 26 16 10 9 16 22 30 25 16 18 20
35 32 30 30 31 36 40 40 34 41 41 38 40 37 38 40 41 40 35 28 26 29 25 37 74 73 62 50 45 48 42 44 34 26 12 6 5 6 15 24 23 20 18 17 18
35 32 28 24 23 24 28 30 24 21 26 32 33 26 24 25 23 19 18 22 24 26 30 52 66 58 46 45 45 45 43 35 25 12 6 4 4 5 12 12 14 16 19 14 16
22 22 18 16 17 21 22 24 23 19 16 16 18 21 22 22 20 18 20 21 26 42 44 47 56 50 44 42 43 49 34 20 15 5 3 3 4 5 8 14 16 14 18 14 15
22 21 18 16 14 16 17 19 19 17 15 15 14 16 20 19 17 18 21 28 33 38 47 56 51 47 46 39 48 42 20 16 6 3 2 2 3 6 10 14 19 19 19 16 19
13 15 16 15 13 14 14 14 14 15 15 15 17 19 21 21 20 20 23 33 44 49 60 54 50 49 41 40 47 28 17 10 4 2 2 2 3 5 9 15 15 27 24 20 22
14 13 14 13 13 14 16 16 16 16 16 20 21 22 20 20 20 22 32 40 46 62 59 52 51 45 37 46 39 18 14 7 3 2 2 2 2 4 7 9 11 18 27 24 27
18 19 19 17 15 16 19 20 21 21 22 24 24 21 20 19 22 27 33 42 62 62 52 52 49 38 45 55 31 16 11 6 3 3 3 3 3 3 7 11 14 21 28 36 38
18 23 26 21 19 22 22 23 23 24 24 23 21 20 21 22 27 29 37 47 60 52 51 48 40 36 44 51 34 15 8 6 4 4 4 3 3 3 7 13 22 30 35 38 37
15 18 26 27 22 25 24 23 22 22 22 22 20 20 21 24 25 27 39 48 56 57 50 50 37 41 42 46 28 14 7 5 4 6 5 5 4 3 6 12 21 27 33 29 28
16 17 24 28 27 29 25 25 25 22 21 20 18 18 21 24 27 32 45 61 64 49 48 45 40 40 44 40 23 11 8 5 5 7 6 6 5 3 4 7 12 21 30 33 33
16 17 24 29 29 28 25 27 24 20 19 18 17 26 30 32 35 50 73 63 58 55 51 48 42 46 45 38 20 10 8 5 6 7 7 6 8 3 3 6 9 12 20 28 37
13 18 24 28 29 27 28 23 18 18 18 17 25 35 36 51 66 90 72 57 49 48 54 48 58 49 44 38 17 9 8 6 7 8 7 6 9 3 3 6 8 11 19 28 36
14 18 25 30 29 29 22 20 18 17 19 29 38 48 67 92 91 91 64 54 47 49 52 52 60 42 43 37 16 9 8 6 8 8 7 7 8 5 3 5 9 10 13 22 34
17 23 31 30 29 24 22 20 19 18 27 41 46 77 99 87 87 76 58 49 50 54 49 54 48 41 41 36 16 9 8 6 8 9 8 7 8 7 4 4 7 9 12 16 27
25 33 33 31 25 24 22 20 19 23 36 48 72 94 97 80 65 60 50 58 60 49 58 53 47 39 36 31 17 8 8 6 8 9 7 7 8 8 7 3 5 8 11 13 17
28 32 31 27 24 21 21 21 25 32 43 60 82 88 84 74 66 64 65 65 56 58 59 47 56 46 40 30 19 8 8 6 8 9 8 8 8 8 5 5 3 6 9 12 12
29 30 28 24 19 19 20 21 29 38 61 82 82 78 73 67 70 77 69 62 65 64 59 55 56 50 44 31 18 9 6 6 7 9 7 7 8 4 5 4 3 3 7 10 11
23 24 22 18 16 16 25 31 42 66 90 75 75 75 76 66 71 81 77 74 66 62 57 55 50 44 38 27 18 9 6 4 6 8 6 6 7 4 5 5 5 3 5 8 9
16 16 18 19 18 27 36 59 68 74 82 72 77 82 76 84 84 80 76 70 64 63 61 51 40 39 33 21 15 9 6 4 6 9 5 4 7 4 4 5 6 5 4 7 8
14 15 18 16 22 32 41 67 70 77 94 85 96 97 88 92 89 88 77 70 66 68 63 53 41 32 30 18 14 9 6 4 6 6 4 4 5 4 4 5 6 5 4 6 8
18 23 28 37 41 58 63 75 86 99 100 100 100 100 91 100 96 85 77 72 76 78 63 53 42 28 27 16 14 9 6 4 6 4 3 3 4 5 4 5 6 5 4 5 8
54 56 51 82 78 86 88 99 90 96 100 100 100 100 100 95 94 87 74 78 75 78 68 54 36 33 20 14 13 9 7 5 6 4 3 3 4 5 4 4 5 5 5 4 6

GFSSW_250_rhum_156.txt.gz
RH
48 52 47 47 45 47 41 40 38 36 35 35 36 43 46 50 44 41 38 37 32 29 26 28 27 28 27 26 24 25 24 38 56 52 62 60 60 64 57 70 65 60 31 25 24
49 50 46 41 41 40 37 34 33 33 35 39 40 42 50 53 48 45 42 39 34 31 31 33 33 32 28 27 28 25 24 47 54 58 60 62 58 53 60 69 56 50 31 21 22
44 43 48 45 43 39 36 35 34 32 32 37 45 48 48 47 55 51 44 38 37 37 40 38 32 27 24 24 26 27 49 60 65 59 52 46 43 44 45 42 47 48 45 35 24
43 41 38 35 33 33 31 28 29 30 34 38 38 40 46 46 43 44 38 36 33 29 23 19 18 20 21 24 27 33 56 54 61 57 44 40 40 42 41 37 39 31 34 29 23
37 37 39 39 34 31 28 24 22 22 26 32 36 27 23 23 27 29 28 25 21 21 18 16 19 19 23 24 26 47 61 62 58 51 40 39 42 40 22 25 30 25 25 30 26
32 31 29 30 29 27 27 26 21 20 22 24 26 25 23 18 17 16 15 15 19 19 17 17 18 21 27 29 48 69 65 60 55 49 40 42 34 21 18 15 15 16 17 21 20
26 28 28 29 27 23 21 20 17 15 15 19 21 21 18 16 14 14 15 18 17 16 17 18 21 29 29 49 72 68 56 58 50 38 37 27 21 14 10 9 9 10 10 13 14
24 24 22 24 23 21 19 18 17 15 13 14 14 14 14 15 15 18 18 18 19 19 20 26 31 27 42 74 76 52 51 45 40 36 24 17 11 8 5 4 4 4 5 6 9
16 18 20 17 15 14 14 14 15 13 13 14 15 17 18 20 22 22 21 20 21 23 24 24 29 41 62 69 54 49 47 40 32 20 15 10 8 4 3 2 2 3 4 5 6
13 12 12 13 13 13 17 18 17 16 15 17 20 22 22 24 24 22 20 21 22 23 25 26 38 53 66 56 49 43 38 38 26 16 11 7 4 3 2 2 2 2 4 5 7
14 16 16 14 14 17 20 24 22 22 22 22 22 24 25 24 22 20 18 19 20 23 26 37 52 55 55 46 39 42 40 40 21 14 9 5 4 3 2 2 2 2 3 5 7
14 14 16 16 17 18 18 25 26 25 25 25 24 25 25 24 21 18 18 22 29 33 39 57 54 55 53 40 42 42 43 35 20 11 7 5 3 3 3 3 2 3 4 6 8
14 15 16 18 16 17 18 21 29 27 28 25 25 26 24 20 20 18 24 35 41 57 57 58 54 53 42 46 49 48 46 26 16 12 6 6 3 4 4 3 3 3 5 8 8
9 10 10 14 19 20 19 20 29 28 29 26 27 25 20 18 18 26 38 44 61 57 62 61 55 47 43 52 48 53 42 22 16 10 7 7 3 5 5 4 3 3 6 11 13
9 10 10 11 14 19 18 20 26 29 27 27 24 20 18 17 21 35 48 51 54 57 66 57 43 44 50 50 54 53 30 20 18 10 8 7 5 5 5 5 3 3 5 10 22
9 10 10 11 13 20 19 23 28 31 29 26 22 20 18 21 30 42 50 44 70 70 60 52 49 54 54 50 51 44 29 19 17 10 9 8 5 5 6 6 4 3 4 9 17
10 11 11 12 16 19 20 27 30 30 26 23 21 20 18 26 39 66 60 67 70 57 55 58 60 63 45 54 55 46 33 19 16 11 10 8 6 6 6 6 6 4 4 8 11
11 11 13 14 15 17 23 28 31 29 25 23 20 19 26 38 58 88 81 79 74 54 55 60 68 56 47 49 42 42 30 18 15 11 10 7 6 6 6 6 6 4 3 7 12
14 13 15 16 18 25 30 31 29 26 23 20 18 24 37 64 81 90 79 71 63 56 60 63 68 47 45 35 38 38 28 16 14 11 11 7 6 6 5 5 6 5 4 5 14
15 16 16 20 25 29 30 30 26 22 18 18 21 29 60 76 86 89 73 63 57 59 68 66 64 52 45 39 36 31 23 13 13 10 10 8 6 5 6 5 5 6 4 4 10
16 18 18 21 24 26 26 24 21 18 18 20 27 44 82 82 96 85 75 69 63 69 72 63 58 39 41 44 35 25 17 12 13 10 9 8 6 4 7 6 6 8 7 5 5
17 18 20 22 22 22 20 18 18 19 20 24 47 85 100 99 85 96 78 74 70 63 64 58 46 35 45 43 32 23 13 11 11 8 9 8 6 5 6 6 6 6 7 6 6
17 18 18 17 16 15 15 15 19 27 37 62 90 100 100 93 77 81 74 80 75 66 62 46 37 36 41 43 27 21 11 11 11 8 9 7 7 4 5 5 5 6 6 6 6
18 19 21 21 22 21 23 29 39 71 96 96 99 97 87 85 85 81 82 77 71 65 52 39 42 47 54 39 18 17 10 11 10 7 8 7 8 4 4 3 5 5 5 6 6
66 60 56 53 54 61 61 69 86 96 99 90 93 87 92 84 92 93 84 76 79 65 56 53 42 42 62 42 18 18 11 10 10 7 6 7 7 5 3 3 5 5 5 5 5
48 74 89 97 98 89 97 100 94 97 95 93 96 94 91 92 94 81 83 75 74 74 56 46 37 41 62 35 18 17 12 10 10 6 5 6 6 3 3 3 5 5 4 5 5
50 60 66 83 85 88 95 96 90 88 93 93 94 92 83 91 86 87 77 77 66 68 63 45 34 40 51 28 17 16 13 11 10 6 5 5 5 2 3 4 5 4 4 4 5

GFSSW_250_rhum_159.txt.gz
RH
42 42 47 44 45 44 41 40 38 37 34 33 31 33 35 36 40 40 44 44 43 45 42 41 40 36 33 33 30 22 19 17 18 17 20 21 21 21 25 32 48 63 47 50 43
44 43 45 44 45 45 46 44 40 36 36 35 35 34 36 36 39 45 46 43 42 46 47 44 38 35 28 22 21 18 16 16 16 19 19 20 20 27 35 41 52 54 57 50 50
40 37 34 35 38 38 36 36 32 32 29 27 25 26 28 32 38 36 34 29 26 29 32 30 27 24 21 20 19 16 16 18 23 20 19 20 22 32 45 44 47 44 45 45 44
39 39 36 32 32 33 35 34 33 32 30 29 25 23 23 25 31 33 29 23 20 18 17 16 16 15 18 19 17 16 18 21 24 24 23 24 30 44 47 41 42 42 50 43 39
29 27 27 29 29 27 28 30 31 27 24 25 24 18 16 17 21 24 25 24 21 18 16 14 14 15 16 15 15 17 20 25 25 20 25 36 42 39 39 43 45 45 35 31 29
25 25 23 22 23 22 23 24 26 26 24 22 21 20 16 15 15 18 17 17 16 15 14 15 17 17 16 16 17 19 22 22 23 38 55 60 55 50 47 44 39 20 15 15 14
26 25 23 22 20 20 20 20 21 24 23 19 14 16 17 16 14 14 15 16 17 18 19 20 18 18 19 19 22 23 22 33 62 81 75 57 51 41 38 30 17 15 13 12 13
16 15 16 16 17 18 18 19 20 18 15 14 14 13 14 14 14 16 18 18 20 22 21 18 16 17 18 20 22 26 54 84 74 66 51 42 41 34 25 14 11 10 7 6 7
18 18 17 16 14 14 13 13 15 16 14 14 16 17 18 16 16 18 21 22 23 22 20 18 17 23 27 29 46 78 81 69 56 44 40 42 33 20 12 9 8 6 4 4 4
34 32 23 17 14 14 14 16 16 14 13 17 20 22 19 19 20 20 22 24 24 21 19 17 23 31 38 66 88 78 65 54 43 41 44 33 19 12 8 7 5 4 4 3 4
62 43 27 18 14 12 12 13 16 17 17 18 18 23 24 25 22 23 26 26 20 18 16 24 35 43 69 75 66 58 52 41 39 40 32 22 12 10 7 6 4 4 3 3 3
19 12 10 10 13 14 14 16 14 17 21 20 17 21 26 27 24 25 26 19 17 17 24 32 46 63 71 63 57 47 40 44 50 37 28 17 11 9 8 5 5 4 3 3 3
11 10 10 10 10 10 11 16 19 20 18 20 20 21 28 27 27 27 21 19 20 25 32 46 63 72 64 54 46 42 44 48 35 33 22 13 12 7 7 6 5 4 4 4 4
11 10 10 9 9 10 10 12 18 22 23 21 20 22 30 29 28 24 21 21 25 33 42 65 68 68 57 46 45 46 54 35 34 29 19 13 13 8 6 6 5 4 5 5 5
12 11 11 10 10 11 11 12 14 23 23 18 21 30 32 30 26 23 22 21 24 40 59 60 70 64 49 44 46 58 40 41 38 25 16 13 9 10 6 6 5 5 6 6 5
14 14 13 12 11 11 12 14 14 23 22 20 26 31 30 28 24 22 20 22 37 63 73 72 66 59 48 48 60 47 45 40 35 20 14 11 11 10 7 5 5 6 6 6 5
16 16 15 13 13 13 14 14 17 22 19 24 30 31 29 25 21 19 21 25 56 69 81 73 64 60 48 55 56 49 45 32 30 17 14 10 12 10 6 6 5 6 8 7 6
17 17 17 17 15 16 17 18 20 19 24 30 31 30 25 21 18 22 26 58 85 79 81 73 63 52 54 59 57 50 40 31 32 20 15 13 13 9 7 7 6 6 8 7 7
20 16 17 18 16 17 17 19 24 32 32 32 29 26 21 19 23 33 75 88 93 85 75 65 60 62 61 54 50 46 36 32 31 27 15 12 12 9 7 7 6 7 9 8 8
31 17 15 15 17 18 21 24 26 28 30 28 23 20 18 23 37 90 94 96 84 78 74 58 60 70 65 58 54 56 39 34 30 20 14 14 13 8 7 6 6 7 8 7 8
63 28 16 16 16 18 19 20 22 22 20 18 18 18 30 50 84 100 85 83 79 70 59 53 66 61 58 51 51 43 35 33 31 22 13 13 13 9 6 6 7 7 7 6 6
38 63 48 20 16 16 17 17 18 17 17 19 25 39 60 73 93 100 86 77 69 62 56 57 77 66 69 58 54 57 37 35 27 18 12 11 14 8 6 5 7 7 7 7 7
38 38 60 60 54 46 37 33 33 43 44 52 67 82 98 97 85 89 80 72 66 65 62 75 74 54 66 42 51 54 30 50 30 16 13 10 12 6 6 5 7 6 5 6 7
46 42 39 64 67 72 75 71 68 83 88 84 93 96 99 91 83 85 67 67 69 70 69 77 79 61 63 51 55 48 31 49 33 15 11 12 10 7 4 5 6 5 4 5 6
44 42 40 48 62 70 78 74 83 87 93 82 95 93 84 94 93 82 66 71 74 72 73 73 83 60 54 43 62 49 34 46 35 13 9 11 10 7 4 5 3 3 3 3 6
34 38 37 42 64 71 81 87 92 97 100 100 96 95 96 90 71 74 77 73 74 72 76 89 85 69 59 48 64 39 35 40 23 11 10 10 9 6 5 4 3 3 3 4 5
27 30 34 34 52 83 85 86 82 87 94 84 86 89 71 67 71 69 73 76 62 68 82 98 87 59 66 60 59 46 46 25 20 10 9 10 8 7 5 4 3 3 3 4 5

GFSSW_250_rhum_162.txt.gz
RH
48 43 44 41 40 40 42 46 47 44 42 39 37 35 33 30 30 29 26 29 32 35 34 35 34 32 33 31 28 25 24 22 20 19 18 18 16 15 15 14 16 18 17 20 18
39 40 40 37 36 34 34 37 38 36 37 36 34 33 31 29 28 27 25 28 32 34 33 30 26 24 22 20 19 18 16 14 13 13 14 15 13 13 14 15 15 14 16 17 18
43 41 39 37 37 33 32 31 29 30 32 33 33 33 30 28 27 23 20 21 22 26 29 29 25 23 21 19 16 14 12 12 12 12 12 12 13 14 14 18 18 19 21 25 28
34 32 30 28 29 30 31 29 26 26 27 31 34 32 29 25 25 25 18 16 16 16 19 22 23 22 19 16 14 14 15 15 15 16 15 14 14 18 17 18 20 23 31 32 42
28 26 24 22 22 21 20 20 20 22 23 22 24 28 26 25 21 21 21 19 16 15 14 16 15 14 14 16 19 20 19 18 16 16 17 19 22 20 24 28 31 39 37 37 42
22 22 21 20 19 20 20 19 19 20 19 20 21 19 22 24 22 17 13 14 15 14 13 13 15 16 19 22 21 19 17 17 20 23 23 22 44 30 37 41 40 43 39 39 33
26 23 21 20 18 17 16 15 16 17 17 18 19 19 19 18 16 14 13 13 13 13 13 16 18 21 22 22 20 17 17 26 27 30 42 36 50 39 35 38 39 36 30 27 26
20 19 18 20 20 19 17 16 15 13 14 14 14 14 16 17 16 14 16 16 16 17 17 19 21 23 22 19 17 18 27 33 45 52 56 53 53 50 42 38 32 26 23 17 14
22 26 26 25 32 35 27 20 15 14 13 13 13 13 13 13 14 16 19 20 19 19 20 22 24 22 17 16 17 28 34 46 66 68 59 47 41 42 41 32 20 15 11 9 9
29 30 31 51 53 38 26 19 18 15 12 12 14 15 17 16 14 18 18 23 24 22 22 26 22 18 16 18 29 32 55 76 67 61 50 44 43 44 33 20 13 9 8 7 6
32 36 60 49 23 11 10 9 9 12 15 14 12 13 16 17 18 17 18 24 24 24 25 26 20 18 17 29 44 68 74 69 55 48 44 43 46 33 19 10 10 8 6 6 6
34 59 46 24 11 9 9 8 9 9 12 14 15 15 14 17 19 18 19 25 26 26 27 22 20 18 23 37 59 69 63 54 54 48 44 43 40 24 14 9 8 6 6 6 5
54 56 41 17 11 9 9 9 9 9 10 13 18 18 18 18 18 20 20 24 28 27 24 20 19 22 37 52 70 74 54 52 48 45 40 48 40 23 16 8 7 8 8 6 4
55 46 42 17 13 11 9 10 10 10 10 11 15 21 21 19 20 19 22 28 28 25 23 20 22 38 65 83 68 61 52 50 45 37 48 51 29 29 17 10 8 8 7 5 4
51 48 47 19 17 14 14 11 11 11 12 12 14 19 21 17 18 22 28 30 28 24 20 21 32 76 82 71 61 55 51 43 45 44 60 61 32 34 16 10 8 7 8 6 4
50 49 51 25 19 18 15 15 13 12 13 14 15 21 23 19 20 26 30 30 25 20 20 26 53 78 66 61 56 51 42 52 53 44 58 52 36 26 12 10 9 7 7 6 4
49 49 49 37 20 20 19 15 18 15 15 16 20 21 19 22 30 31 30 27 22 20 26 60 82 84 76 60 53 46 46 55 51 41 61 58 40 22 11 10 9 8 7 6 4
50 52 42 54 23 18 19 18 18 17 17 19 20 20 27 31 34 31 26 21 20 24 51 71 74 67 55 49 55 52 59 66 49 46 54 71 45 20 12 10 11 8 6 5 4
54 57 40 46 46 20 18 18 18 20 23 25 27 30 30 30 23 22 18 19 30 48 67 74 64 57 52 54 56 55 66 79 47 55 53 55 39 14 10 9 9 9 6 5 5
60 57 54 39 54 48 20 17 18 20 22 22 24 23 23 21 20 24 29 50 73 81 74 62 57 59 60 57 68 61 80 85 47 48 49 46 39 13 10 10 9 8 6 5 6
53 59 58 49 41 52 56 30 21 19 18 18 18 18 20 26 38 59 78 76 87 69 63 57 59 64 49 57 64 62 83 79 49 61 53 38 46 13 10 11 9 8 6 5 6
29 58 60 58 50 42 43 58 56 54 41 39 46 50 62 59 78 94 80 73 71 55 55 62 66 52 53 72 66 80 97 73 52 55 64 37 40 12 10 10 10 9 6 6 6
50 30 53 64 60 50 43 39 51 60 63 61 62 63 70 71 66 94 88 77 62 64 60 55 51 48 70 70 57 81 99 64 50 47 74 40 32 11 10 10 9 8 7 5 5
93 79 42 36 42 45 43 42 39 40 44 45 56 64 67 79 71 68 71 69 69 61 57 55 67 67 75 76 67 75 82 63 50 52 53 48 17 10 10 9 10 8 6 5 3
91 86 92 62 44 38 38 36 38 35 37 38 46 51 57 68 85 79 74 65 70 75 77 81 76 70 74 72 62 87 68 60 51 65 44 40 16 10 10 8 9 8 6 5 3
86 92 89 86 87 80 48 37 36 36 37 40 47 52 69 80 83 74 72 70 90 92 77 62 66 73 88 68 61 78 71 50 55 55 35 28 12 9 9 8 7 7 5 4 3
79 65 58 82 97 97 98 92 86 74 70 78 78 91 88 83 82 78 84 88 92 78 65 65 74 69 78 65 74 76 53 47 59 40 29 16 10 9 9 8 6 7 5 4 4

GFSSW_250_rhum_165.txt.gz
RH
68 54 46 46 42 36 36 34 32 35 34 35 35 35 34 33 34 30 27 26 26 27 24 24 24 27 29 28 27 27 27 25 24 23 21 19 18 16 15 15 15 15 15 14 16
42 39 34 34 33 31 29 29 29 26 25 26 26 26 27 28 30 27 27 24 22 21 20 20 20 22 26 26 25 24 23 21 19 17 15 13 12 12 11 12 12 13 12 11 12
44 40 38 35 33 32 31 31 28 25 23 24 25 25 25 26 26 25 25 26 25 24 22 18 16 15 16 18 19 20 18 16 14 13 12 12 15 15 15 16 16 15 14 11 10
38 34 31 29 27 26 27 26 26 26 24 24 24 24 24 23 24 29 29 27 22 21 20 19 17 15 13 13 12 12 12 13 13 13 15 16 17 16 15 16 16 14 14 15 17
28 25 22 20 21 22 22 21 20 19 19 19 19 20 20 19 21 20 23 26 24 20 18 13 12 14 14 12 12 13 14 16 20 20 19 16 16 16 18 15 15 16 17 17 16
21 17 17 20 21 19 18 17 16 14 14 14 15 17 17 18 18 18 19 19 21 20 15 13 12 12 13 13 15 18 21 21 20 18 17 17 19 18 22 26 33 41 45 45 44
18 21 24 20 18 17 18 17 16 15 13 12 12 12 12 15 16 16 17 16 18 18 14 14 16 15 14 15 19 21 21 20 16 18 19 24 34 33 40 43 41 44 43 43 41
24 24 22 20 18 19 23 23 21 20 18 14 13 12 12 12 12 12 13 14 13 13 13 16 18 17 15 17 21 21 19 17 18 18 25 27 42 44 42 37 40 41 43 39 26
24 23 21 20 21 24 26 36 38 31 24 18 15 13 12 12 13 12 12 13 13 12 14 18 20 20 19 21 23 22 19 18 20 25 32 44 50 49 43 41 42 48 39 26 16
22 22 29 28 24 29 46 42 19 10 9 9 9 12 16 15 12 12 13 14 16 14 15 16 22 23 21 22 24 22 20 19 22 38 45 49 51 48 42 42 47 41 35 19 11
31 52 48 28 37 47 37 14 10 9 8 8 9 9 12 16 14 12 12 14 17 16 16 17 23 22 22 26 24 21 18 21 37 49 58 58 49 45 47 48 36 28 21 13 8
66 73 47 38 54 43 26 12 11 9 10 8 8 9 10 13 16 13 13 15 16 18 18 20 24 26 28 26 23 19 19 39 61 59 56 49 42 44 51 38 32 21 16 10 10
69 86 48 53 56 44 28 14 13 12 11 10 10 10 10 12 15 16 18 18 18 18 20 22 25 31 28 23 18 19 37 55 58 55 55 41 39 65 54 37 30 22 14 11 10
70 81 53 55 55 48 41 16 16 14 13 11 12 12 11 11 15 18 20 17 18 19 22 27 30 28 24 18 18 32 55 60 49 50 48 41 36 67 48 40 34 19 16 11 9
70 79 58 52 56 51 48 18 17 17 16 16 14 13 14 13 15 17 23 19 18 22 26 28 30 27 19 16 28 53 63 59 52 49 50 49 51 66 47 41 29 20 17 10 8
82 84 61 54 50 54 52 36 18 18 18 18 16 14 14 16 15 22 26 19 24 27 31 29 25 21 20 37 54 58 63 54 46 51 51 61 58 63 35 31 21 21 15 10 8
68 77 72 55 51 53 48 55 26 17 17 18 19 16 16 19 21 19 19 23 27 32 30 24 20 26 56 58 46 54 51 47 50 49 52 66 70 60 37 34 24 24 14 10 8
68 64 68 50 54 50 46 49 53 20 18 18 20 23 25 25 25 27 30 30 31 29 23 22 45 68 72 53 60 61 51 52 51 47 53 71 77 77 36 36 28 20 12 8 7
68 64 60 47 55 50 48 46 54 54 22 17 17 20 22 24 22 24 23 23 22 19 19 40 70 63 55 55 56 57 51 49 51 49 45 61 70 60 38 30 22 16 10 8 7
75 72 64 59 39 56 53 50 46 47 60 40 20 18 19 20 20 20 20 26 34 51 56 52 55 61 58 56 62 57 59 58 54 46 41 56 95 46 37 31 23 16 9 8 6
76 72 69 82 50 34 58 57 54 50 43 48 53 47 51 55 56 63 63 62 63 57 55 53 65 66 63 67 66 57 64 59 55 62 48 39 88 44 30 26 21 14 8 8 8
88 89 73 69 83 80 32 42 62 61 53 46 40 42 44 42 45 50 52 52 46 43 58 71 69 65 67 76 68 64 56 54 55 64 51 52 58 46 35 25 17 10 8 8 7
86 94 95 79 79 82 86 56 32 35 38 44 42 40 38 36 35 38 42 52 53 60 63 66 66 60 69 76 51 52 55 41 47 53 59 57 60 35 28 29 18 9 7 7 7
54 80 94 98 94 85 83 82 80 72 64 34 34 33 34 35 34 35 42 55 69 79 75 67 68 57 64 64 44 50 62 54 50 57 44 73 40 34 23 21 12 10 8 7 7
70 57 79 93 100 97 95 95 84 77 86 79 72 52 46 46 54 56 66 67 70 72 67 69 67 62 62 54 47 50 51 59 52 45 54 59 39 22 18 16 10 9 8 7 7
52 69 61 84 94 88 95 100 99 94 78 80 75 73 66 71 77 80 80 77 84 88 74 63 59 56 63 46 33 46 58 49 46 47 64 42 28 19 18 14 9 8 9 8 6
56 64 54 60 78 82 100 100 100 96 97 88 86 78 74 72 72 77 82 84 87 83 72 67 65 63 53 33 40 53 51 47 46 61 53 31 17 16 13 10 8 8 8 7 6

GFSSW_250_rhum_168.txt.gz
RH
57 73 65 61 54 42 39 37 37 36 33 31 34 35 35 37 32 32 31 31 33 33 28 28 28 27 25 24 26 26 27 23 24 23 25 25 25 26 26 24 23 21 18 16 15
42 49 45 43 41 36 34 32 31 28 27 27 28 26 26 30 33 32 30 27 29 31 29 27 23 21 19 19 19 19 21 27 29 28 26 24 23 21 19 17 14 12 11 11 11
42 38 34 32 33 32 30 30 30 29 27 27 25 22 20 21 21 23 22 21 22 24 24 25 24 23 22 21 17 16 15 15 16 18 20 19 18 16 15 12 11 11 12 11 10
28 28 29 31 30 27 24 22 20 19 21 21 21 19 19 17 19 20 21 21 22 23 24 26 26 22 20 20 17 16 14 13 12 12 12 12 13 12 14 19 19 16 15 14 13
32 29 29 30 27 21 16 15 15 17 17 17 16 15 15 16 16 17 18 20 19 20 19 22 26 23 22 20 14 11 12 12 11 11 12 16 17 18 18 18 17 16 17 17 20
21 22 21 20 18 16 17 19 18 17 15 15 16 12 11 11 12 13 14 16 17 17 17 18 18 18 20 18 13 11 10 11 12 14 16 20 18 17 15 15 17 21 28 30 30
20 19 17 17 17 22 22 19 16 16 16 16 15 16 14 12 11 11 12 13 14 16 15 17 16 18 18 16 12 14 13 13 14 17 20 20 18 15 16 21 28 40 48 46 47
21 25 24 23 23 24 20 20 18 18 18 16 15 18 17 17 15 12 11 11 12 13 13 13 14 14 12 12 14 18 18 17 19 21 23 20 20 17 19 27 45 48 46 43 39
21 27 25 24 29 38 32 21 25 31 30 24 16 10 9 11 15 17 14 12 12 13 13 13 12 13 12 14 17 21 22 21 21 23 23 18 18 18 30 46 45 44 46 46 46
24 25 25 26 55 51 33 39 43 36 15 10 9 8 8 8 8 10 13 16 13 12 14 13 13 14 14 15 17 21 22 22 25 21 20 17 18 40 50 41 40 42 41 42 55
41 32 36 50 66 57 39 52 45 24 11 10 9 9 8 8 8 8 10 14 14 14 12 13 15 17 15 16 17 21 23 24 24 23 18 16 48 51 44 42 42 42 45 54 59
54 52 47 53 74 56 47 54 44 24 16 12 11 10 9 8 9 9 9 14 14 13 13 14 15 16 17 19 19 20 23 25 25 18 17 33 50 51 45 43 43 45 55 59 60
63 68 54 77 71 63 49 54 48 36 18 16 13 11 11 10 10 10 10 14 16 16 16 15 17 17 19 19 22 22 26 27 20 21 44 40 52 54 49 47 48 52 52 66 48
75 83 60 76 70 66 45 50 50 44 31 18 18 18 14 13 11 11 11 14 18 18 18 19 17 20 20 19 25 28 27 22 21 43 53 48 45 55 47 44 46 49 59 46 32
65 69 74 64 73 72 45 50 49 47 40 21 19 17 16 15 15 13 12 14 17 21 19 19 18 19 21 28 30 29 22 21 43 47 47 45 43 46 41 43 49 52 43 35 23
61 58 68 78 71 75 56 53 49 49 49 31 19 19 18 17 14 17 16 16 19 22 22 20 25 28 29 28 24 19 23 46 46 47 49 53 56 57 44 44 38 42 33 26 20
67 55 63 76 70 70 64 45 53 48 49 52 26 17 19 21 20 19 20 22 23 22 23 28 31 31 29 23 19 34 49 48 52 59 58 65 60 47 40 32 44 33 28 25 17
72 60 54 68 73 67 68 56 54 53 47 49 52 37 18 19 20 22 24 25 27 27 28 25 23 20 18 23 44 45 49 53 51 52 57 63 50 40 40 44 39 34 27 22 17
60 49 55 56 67 69 69 76 47 56 57 48 49 48 56 40 20 20 20 19 18 18 20 22 40 50 53 49 52 64 64 64 64 56 55 59 45 54 39 50 42 39 29 18 15
68 58 51 50 56 68 68 70 87 48 56 61 54 54 47 45 49 51 50 55 48 44 47 48 52 52 47 51 64 66 58 59 54 44 44 45 44 51 48 41 45 30 25 17 14
72 70 54 50 45 68 66 64 74 90 53 43 59 63 60 54 45 42 41 39 37 36 36 36 40 41 44 52 64 55 54 59 54 52 40 32 54 38 48 35 27 23 19 14 13
81 70 74 46 40 44 73 77 69 75 83 81 50 38 35 38 45 42 40 39 37 35 36 36 42 50 53 59 57 56 62 69 56 53 39 30 43 45 43 30 20 19 14 13 10
72 57 56 70 43 36 50 64 75 73 77 78 77 77 64 52 44 49 38 38 37 36 41 52 64 63 71 75 67 67 57 53 44 34 32 28 35 35 35 25 23 16 13 12 9
89 71 74 64 63 52 39 54 58 70 72 90 86 71 73 76 78 76 77 76 71 66 67 69 65 55 57 53 38 41 44 37 28 28 30 40 39 44 37 25 21 15 11 10 8
98 98 99 94 90 72 47 50 54 52 68 89 81 82 76 75 73 79 78 65 64 67 54 51 52 49 46 43 36 41 48 46 36 33 33 47 40 30 26 19 18 11 10 10 8
100 100 97 100 78 86 72 52 47 43 52 60 85 86 77 74 73 75 81 82 82 76 71 60 50 49 53 44 44 49 49 40 34 36 40 37 34 25 20 19 14 9 10 10 8
96 100 96 100 90 84 90 66 54 51 49 54 63 74 82 79 80 72 69 68 70 74 69 56 48 43 44 34 33 36 39 36 37 40 41 33 26 22 17 14 9 9 9 8 8

GFSSW_250_rhum_171.txt.gz
RH
58 58 64 64 59 54 57 60 50 43 38 36 36 37 36 35 37 42 42 38 43 41 36 38 36 34 32 29 27 28 26 23 24 23 26 25 30 37 38 36 34 35 33 32 28
54 51 50 48 58 62 57 48 42 36 32 30 29 29 29 30 32 29 30 31 32 32 32 34 34 33 33 31 29 24 20 20 19 19 19 19 24 27 26 26 26 24 24 23 22
66 64 58 52 44 35 30 29 28 27 24 22 20 20 20 22 22 24 24 22 23 24 26 22 23 27 29 31 28 26 23 22 21 19 16 16 16 17 20 23 24 23 21 20 19
34 33 31 29 27 26 25 26 25 25 22 19 17 17 16 15 15 16 18 18 20 20 20 19 18 20 22 26 28 27 25 21 22 21 17 15 14 13 12 12 12 11 12 12 11
34 30 26 24 22 21 21 20 19 19 17 15 14 13 12 12 12 13 13 14 14 16 17 18 18 19 20 21 23 24 25 22 20 20 13 12 12 12 12 12 13 17 18 17 17
25 24 22 20 19 19 18 18 17 17 17 17 16 15 15 14 14 13 12 11 11 13 14 15 17 17 17 18 19 18 22 23 21 19 13 12 11 11 13 16 19 20 18 17 16
27 27 25 23 18 19 19 20 22 20 18 17 16 15 14 13 12 12 12 10 10 10 10 11 13 15 16 16 17 17 18 19 19 16 12 15 12 13 16 21 23 21 17 15 15
38 36 35 25 20 21 24 25 26 25 21 25 30 25 21 18 16 15 14 14 13 11 10 10 11 12 14 15 15 15 16 14 14 12 14 18 17 15 16 21 22 18 17 16 18
43 42 36 32 23 24 24 31 28 35 28 45 39 23 12 10 9 9 12 15 17 15 14 13 12 13 12 13 14 13 13 13 12 13 15 17 23 18 18 22 21 18 18 26 48
46 52 51 66 41 30 31 48 39 35 36 47 32 14 11 10 9 9 9 9 10 17 20 17 15 14 13 14 13 13 14 13 13 14 17 18 27 25 25 22 18 18 34 50 46
49 56 57 81 52 35 47 63 58 38 46 45 32 14 11 11 10 9 8 9 9 9 14 20 23 18 14 12 13 15 15 16 16 16 20 24 28 25 24 18 19 40 48 44 46
42 53 60 70 53 51 56 65 56 49 45 48 32 17 14 15 13 11 10 9 9 9 10 14 24 28 21 15 14 14 16 17 17 17 18 26 29 26 20 19 40 43 43 45 42
41 46 71 59 55 51 54 65 64 55 46 50 42 23 16 15 16 14 12 12 11 10 10 16 22 22 17 14 13 14 16 18 20 19 21 28 30 22 22 41 46 47 45 43 45
55 68 77 58 64 60 53 55 79 61 51 50 48 36 16 16 16 17 16 13 12 12 13 16 17 16 17 16 17 16 18 20 21 24 31 27 19 21 39 46 46 46 45 49 60
100 100 59 63 68 63 59 52 72 68 46 53 49 46 26 17 18 20 18 16 15 13 15 19 20 20 20 17 16 17 19 21 28 29 25 18 24 50 53 55 53 47 51 59 54
100 100 65 62 65 64 64 61 62 64 56 49 52 52 45 24 18 21 22 19 17 16 15 16 21 24 21 18 21 27 30 30 28 21 20 40 47 55 50 44 44 49 60 56 49
100 84 58 66 64 66 55 63 65 60 58 58 54 52 52 47 34 20 20 25 25 22 21 20 20 20 22 25 28 27 23 19 22 42 47 50 51 54 47 52 49 61 50 45 43
100 92 71 67 63 58 56 53 58 70 59 61 50 57 55 58 48 45 37 21 20 21 21 21 21 20 20 21 23 30 40 45 44 46 49 53 54 52 58 52 60 46 43 42 42
100 100 84 81 66 62 44 50 53 58 67 61 57 50 60 59 62 55 46 46 42 41 36 39 40 40 41 43 44 47 42 38 39 43 43 50 54 70 58 48 44 42 45 41 26
100 100 93 74 74 55 44 44 52 50 62 66 66 64 55 55 61 63 63 55 47 44 43 40 40 39 37 37 37 38 42 50 58 60 59 62 57 75 40 40 41 45 41 30 19
100 100 100 82 67 66 72 50 44 48 45 57 69 70 82 69 46 44 48 44 47 46 43 42 41 40 38 38 45 53 62 70 69 65 48 33 40 35 37 32 41 38 34 21 14
100 100 97 83 82 66 55 58 51 44 40 41 56 66 71 70 83 84 73 61 55 57 46 42 40 49 53 64 74 75 61 54 52 49 40 32 37 33 32 35 33 31 22 13 9
100 100 86 93 82 64 61 63 65 47 40 38 37 53 64 72 72 80 78 81 80 79 78 78 76 72 68 62 54 50 50 50 52 46 39 33 30 31 29 33 29 21 15 11 9
99 100 92 100 90 76 75 70 70 57 53 47 37 40 49 58 64 73 76 75 73 68 65 59 57 53 54 54 49 57 61 51 47 37 29 32 30 27 32 28 21 19 12 10 9
55 98 100 99 98 77 70 78 77 68 62 52 43 39 49 48 53 52 53 59 70 68 65 60 58 56 62 56 48 52 46 41 34 31 25 29 25 31 28 25 20 14 11 10 10
75 61 99 100 99 90 78 78 85 69 71 80 66 52 68 59 42 43 41 44 44 46 56 64 61 60 63 55 49 54 44 38 34 30 28 30 34 28 26 22 18 14 13 11 9
89 87 71 90 94 82 88 91 90 95 99 84 76 79 74 62 53 49 45 39 39 39 39 39 39 39 40 40 38 39 41 36 34 33 33 30 35 30 28 22 15 11 11 10 9

GFSSW_250_rhum_174.txt.gz
RH
68 71 69 64 64 58 55 55 53 52 56 61 55 49 44 41 38 38 35 37 42 46 44 47 46 42 39 36 34 33 31 28 26 26 24 24 25 24 23 24 31 35 36 34 27
72 68 61 57 56 57 55 55 60 64 67 55 44 39 36 33 30 26 27 28 28 30 35 37 40 39 36 34 34 31 29 30 29 28 25 23 21 19 19 20 22 25 30 30 26
62 60 56 56 61 58 56 54 46 33 27 25 23 23 21 20 19 21 23 23 23 26 26 26 29 30 29 28 26 26 29 32 31 28 24 22 22 21 20 17 16 16 17 22 23
64 59 49 42 37 33 30 27 25 24 23 22 22 20 18 16 16 15 16 17 18 19 20 22 21 24 25 25 23 21 24 27 28 29 27 28 27 24 23 21 16 14 14 13 13
39 37 33 29 26 24 22 21 19 18 18 17 16 15 15 14 13 12 11 11 12 14 15 18 20 20 20 21 20 20 21 24 28 29 30 30 28 25 22 21 17 12 13 14 13
38 33 29 28 25 25 24 22 20 18 18 20 18 17 18 14 14 13 11 10 10 10 10 11 13 15 18 19 19 20 21 22 22 23 25 24 25 24 23 21 17 12 11 11 11
51 39 31 28 27 31 28 28 20 18 24 25 20 21 20 20 25 20 15 12 12 11 11 10 10 11 12 14 16 17 18 20 20 19 20 20 18 18 20 19 14 13 16 14 13
50 45 33 32 30 42 36 30 25 25 25 22 26 38 28 42 38 27 18 16 14 13 12 11 11 10 10 11 13 14 15 16 17 18 18 17 17 18 17 14 13 15 18 18 16
42 41 42 39 34 41 45 43 53 35 34 29 37 47 46 47 29 14 10 10 9 10 15 15 13 13 13 11 10 11 13 13 14 16 17 18 17 14 13 14 14 17 21 20 20
48 42 40 40 39 42 45 48 54 40 42 44 44 45 47 41 22 15 12 10 10 9 9 11 19 18 16 17 13 11 11 12 12 13 16 16 18 12 13 15 16 18 20 22 24
52 53 49 43 40 38 38 48 51 44 48 50 50 47 47 41 25 16 14 11 10 9 9 9 9 14 25 22 18 16 15 14 13 13 15 15 18 16 16 17 18 22 25 26 26
70 70 64 51 43 39 36 43 54 42 53 52 52 53 47 47 32 18 16 13 12 11 10 10 10 10 11 23 29 27 21 16 13 13 14 16 16 18 19 20 20 23 28 27 23
86 82 72 50 49 45 44 45 59 43 56 53 59 51 48 51 44 20 19 17 15 12 12 10 11 10 10 14 24 34 36 25 19 14 14 16 18 20 23 22 23 29 27 21 19
86 87 77 58 46 52 76 69 59 51 55 58 64 61 52 52 48 30 20 20 17 15 13 13 13 12 12 15 24 25 23 20 16 16 16 18 22 24 24 26 31 27 20 25 43
99 97 100 85 80 77 100 73 54 57 54 58 62 62 50 52 52 49 34 20 22 17 16 15 15 16 19 21 22 22 22 19 17 16 20 24 24 29 31 30 22 22 41 47 47
100 100 100 100 100 100 100 73 56 61 55 53 58 66 59 53 54 50 49 39 22 23 22 18 17 17 20 24 26 26 23 19 19 22 28 30 32 30 26 31 47 46 47 53 54
100 100 100 100 100 100 100 69 52 67 58 52 51 60 66 62 53 54 54 48 44 30 25 24 24 22 22 23 23 22 24 26 27 25 25 27 37 47 48 46 50 56 60 55 50
100 100 100 100 100 100 100 72 65 63 54 52 51 49 58 65 63 54 58 59 52 47 45 44 41 33 35 34 32 31 31 32 35 43 51 51 55 53 52 50 47 54 52 50 44
100 100 100 100 100 100 100 89 68 75 69 54 48 49 49 66 68 64 50 58 59 62 60 52 46 44 42 42 41 41 38 36 35 35 37 41 48 60 52 50 53 48 46 41 39
87 100 100 100 100 100 100 100 84 64 65 54 51 42 46 47 60 68 73 60 50 49 53 55 54 48 44 43 42 40 37 36 35 34 36 44 63 74 44 45 45 50 44 35 27
90 96 100 100 100 100 100 100 97 82 58 60 57 51 43 47 40 61 68 73 81 79 70 63 58 48 44 41 40 38 37 38 44 52 48 36 56 48 44 39 40 34 26 21 23
80 80 100 100 100 100 100 100 98 81 67 59 59 54 44 38 41 40 39 57 70 75 81 79 80 78 78 81 78 76 68 64 60 59 55 38 40 37 31 31 27 21 18 18 17
87 89 79 82 79 100 100 100 100 100 77 68 61 61 59 49 41 42 40 37 49 60 72 73 76 69 66 66 68 69 62 57 52 56 55 51 33 34 24 25 22 19 18 15 15
88 86 91 83 97 100 100 100 100 98 88 78 72 58 62 62 53 48 47 49 44 41 50 54 57 53 52 56 59 62 62 52 49 40 33 37 30 30 28 24 24 21 19 17 13
96 90 100 83 84 100 100 95 100 100 99 92 79 66 54 58 63 61 78 73 46 43 44 46 47 44 41 36 36 35 34 33 32 31 33 38 36 32 28 23 24 23 17 15 10
85 100 98 100 82 93 80 97 100 100 100 90 82 79 61 68 58 66 76 64 61 50 49 44 44 43 46 40 38 42 44 48 43 40 35 31 36 31 30 28 28 22 16 14 10
84 99 100 100 100 95 73 97 100 100 100 100 99 86 80 70 63 71 76 65 61 60 51 54 54 52 63 56 52 50 56 53 48 49 43 47 40 39 37 32 32 22 18 10 9

GFSSW_250_rhum_180.txt.gz
RH
66 64 72 75 75 75 78 86 90 91 90 84 79 75 72 66 59 52 52 52 46 43 41 44 44 46 45 45 51 55 51 43 39 38 37 34 32 30 31 33 31 30 32 30 30
61 51 61 72 82 88 90 86 82 79 76 74 73 71 64 54 51 48 46 43 42 39 36 34 38 40 40 39 40 42 47 47 43 38 37 35 32 30 27 26 25 24 22 21 20
73 78 76 72 75 78 76 72 67 64 62 62 59 54 50 44 38 32 29 26 24 24 27 31 31 31 29 31 32 32 36 40 41 41 38 34 32 31 30 29 28 27 26 25 22
100 78 70 70 70 69 70 70 70 67 60 47 35 29 26 23 21 20 19 18 18 18 18 19 18 18 20 24 25 26 28 30 30 34 35 34 33 31 31 33 29 26 24 23 24
66 78 93 97 98 91 83 74 55 42 36 30 28 25 24 22 21 18 16 16 16 16 14 13 13 14 15 15 17 22 24 25 26 27 27 27 27 28 29 29 28 25 26 24 22
57 53 53 50 50 49 46 43 42 40 33 29 26 27 31 27 24 18 17 18 20 17 14 16 15 14 14 12 13 14 17 20 21 24 25 25 25 25 26 26 26 22 21 21 18
67 61 52 49 46 44 44 45 44 41 35 30 27 26 32 28 30 24 22 25 24 23 21 26 30 28 20 15 12 10 12 13 18 19 21 23 24 25 25 24 24 23 20 18 19
56 59 58 54 56 53 53 52 50 49 46 35 30 26 32 37 40 41 34 36 35 29 35 31 16 12 11 13 15 12 11 10 11 14 18 18 18 20 21 21 23 22 22 21 21
100 59 61 58 58 61 59 56 53 51 48 41 34 30 33 34 36 42 41 39 39 36 40 23 13 11 10 9 9 12 13 12 10 11 13 15 15 17 18 19 20 20 21 22 21
100 100 69 62 62 60 65 62 56 51 46 36 31 27 29 30 36 44 43 43 45 43 43 18 15 11 10 9 9 9 12 12 12 11 11 11 12 13 14 16 16 17 17 18 18
100 100 100 97 63 62 58 62 64 55 44 40 36 32 28 30 36 46 49 50 50 50 43 19 17 13 10 10 9 9 10 14 16 14 13 13 12 13 14 15 14 14 15 16 16
100 100 100 100 100 78 62 58 53 58 54 43 36 36 32 33 39 49 53 56 50 52 46 29 20 17 13 12 11 10 10 10 17 21 17 16 16 16 17 18 17 18 18 17 16
100 100 100 100 100 100 96 71 56 46 49 48 40 38 38 37 40 52 56 56 52 53 50 45 23 21 16 14 13 11 10 11 12 19 24 22 21 20 20 22 23 23 23 22 23
100 100 100 100 100 100 100 100 75 54 46 47 43 44 42 46 50 56 57 54 56 53 54 49 42 23 22 17 16 14 12 12 12 14 22 28 32 31 31 31 36 37 30 29 29
100 100 100 100 100 100 100 100 100 88 56 60 45 52 48 55 78 57 56 57 53 54 56 54 51 42 25 24 20 21 21 16 14 14 15 20 34 30 31 34 26 22 22 21 21
100 100 100 100 100 100 100 100 100 96 96 94 68 51 58 79 95 58 57 58 52 52 55 56 57 53 50 31 26 24 25 27 28 28 26 27 31 31 29 25 23 23 25 28 32
100 100 100 100 100 98 100 100 100 100 100 100 92 62 55 90 98 71 58 63 63 51 59 55 54 60 57 57 50 37 29 29 30 32 33 32 30 27 23 24 28 32 34 35 39
93 100 100 100 100 100 98 100 98 100 100 100 100 86 62 83 100 91 65 66 64 54 51 63 63 52 57 56 58 61 52 47 50 44 38 36 39 38 36 41 42 42 39 38 38
86 100 94 100 100 100 100 100 100 100 100 100 100 99 91 81 96 94 76 63 62 62 51 47 56 67 67 67 56 45 43 50 53 55 55 55 48 45 43 41 42 46 48 48 50
55 95 83 100 100 100 97 100 100 100 100 100 100 100 92 86 80 100 77 75 66 64 56 46 47 43 43 43 53 65 66 59 50 58 57 76 67 53 48 49 61 64 61 57 52
40 64 68 86 94 100 77 81 100 100 100 100 86 100 100 91 84 99 90 82 69 69 64 59 59 56 47 42 37 34 38 49 52 56 61 71 71 63 54 53 50 45 40 35 31
20 33 64 76 89 82 98 86 100 100 100 100 92 79 92 91 87 84 100 75 71 63 65 58 64 62 50 45 38 37 32 31 32 39 45 44 51 44 40 38 38 33 32 30 30
14 25 49 67 83 86 99 100 100 100 100 100 100 89 76 61 82 87 100 85 71 69 78 71 69 70 55 46 43 41 39 40 36 34 40 38 38 36 34 36 34 33 30 28 28
12 14 28 46 63 73 92 100 100 100 100 100 100 100 95 72 65 73 98 99 78 73 75 79 73 68 60 53 50 42 37 41 43 44 40 47 44 38 38 37 34 32 30 28 29
11 12 15 26 56 86 93 100 100 100 100 100 100 100 100 91 73 56 82 100 84 77 67 73 92 79 69 70 59 49 47 43 48 53 54 58 61 54 51 46 45 42 35 32 29
9 11 14 22 37 67 84 94 100 100 100 100 100 100 100 91 86 67 63 100 100 97 67 62 89 86 74 74 67 59 55 49 58 66 65 70 76 60 56 48 44 41 34 31 32
9 14 12 18 31 36 79 100 100 100 100 100 99 98 96 93 82 76 80 84 99 93 92 70 59 66 77 61 53 62 52 53 63 76 80 77 69 65 56 53 51 43 38 37 38

GFSSW_250_rhum_183.txt.gz
RH
58 75 76 89 99 100 100 100 98 94 92 91 89 88 87 87 81 72 62 58 59 58 56 53 48 49 48 49 51 50 46 49 47 52 50 50 49 43 40 41 33 29 28 32 26
79 65 76 76 86 95 100 94 91 92 96 96 95 90 82 76 70 65 62 56 50 47 47 47 51 45 44 44 45 48 50 42 52 46 46 43 42 38 35 33 33 34 37 37 36
100 79 65 55 65 71 88 100 98 90 82 80 78 77 73 70 69 62 47 45 42 36 30 27 25 26 34 36 38 39 39 47 43 47 46 44 39 39 36 34 30 26 28 27 26
90 100 82 72 69 72 85 86 81 79 74 68 65 65 62 54 45 36 28 23 22 20 19 19 19 19 19 20 21 28 31 32 35 40 41 40 41 39 37 34 32 28 26 25 26
100 92 96 100 71 69 72 78 79 75 73 69 64 59 46 35 28 26 25 23 21 19 17 17 16 15 14 15 16 16 17 21 26 28 32 38 39 40 39 38 31 29 28 27 26
100 100 90 90 93 100 86 76 85 85 79 71 60 45 34 29 27 25 26 23 23 20 18 17 18 17 17 16 15 14 12 14 15 20 24 26 30 36 36 35 34 30 29 27 25
100 99 100 88 92 67 82 86 83 78 64 52 45 40 34 31 27 25 26 25 29 28 23 25 20 22 22 23 26 22 14 12 11 13 16 20 22 24 28 29 30 29 26 25 24
100 100 92 100 91 88 58 53 49 49 46 46 45 48 46 35 30 26 24 31 34 34 26 28 28 24 28 31 22 18 19 18 13 11 11 13 18 20 21 24 27 29 27 25 24
75 100 100 94 100 96 85 65 55 50 47 49 50 48 50 45 39 29 29 32 28 33 27 30 32 31 33 18 14 12 10 10 12 14 12 10 12 14 18 20 21 23 23 24 23
100 80 100 100 100 100 97 78 68 63 59 57 55 54 51 46 40 30 28 28 30 36 32 38 35 39 28 17 14 10 9 9 9 9 14 12 10 11 13 15 18 19 19 20 20
100 81 100 100 100 100 100 100 76 66 65 65 62 55 53 47 37 29 30 30 31 38 40 44 38 44 30 20 15 11 9 9 8 9 9 15 14 12 12 12 12 15 17 17 17
37 100 77 100 92 100 100 100 99 78 70 66 69 70 57 49 39 32 34 34 34 42 43 47 42 47 40 21 19 14 12 10 9 9 9 11 16 18 15 14 13 13 13 14 15
19 60 93 98 100 99 100 100 100 99 78 72 72 70 68 57 45 36 36 38 36 49 48 44 48 49 49 30 22 18 15 12 11 10 10 10 15 20 18 16 15 16 16 17 18
14 30 61 86 100 95 100 100 100 100 100 86 68 67 67 64 46 35 36 43 42 53 55 48 50 51 53 48 26 23 22 18 14 12 11 10 13 18 23 22 21 19 20 22 24
15 20 40 71 98 95 100 100 100 100 100 100 98 81 74 61 61 46 38 44 52 64 56 54 49 52 54 56 50 32 26 24 28 18 13 12 12 13 27 31 36 42 44 44 44
14 20 32 56 95 100 100 100 100 100 100 100 100 97 88 73 57 54 45 44 60 76 58 61 50 54 55 59 62 58 52 38 29 27 26 22 15 14 17 26 32 38 39 38 35
14 17 31 49 98 98 100 100 100 100 100 100 100 100 100 98 84 58 52 53 67 78 59 68 59 53 65 58 62 64 66 63 55 48 35 30 31 30 27 28 30 33 35 30 29
15 15 23 40 92 98 100 100 100 100 100 100 100 100 100 100 98 88 61 54 73 83 59 66 72 56 54 71 76 64 63 60 61 60 54 53 53 44 38 37 36 42 48 52 52
14 16 19 37 92 100 100 86 99 100 100 100 100 100 100 100 100 92 79 70 66 100 72 58 77 66 54 50 63 59 58 65 73 72 58 50 49 48 46 46 47 52 51 50 45
13 15 20 33 91 100 100 95 99 99 100 100 100 100 100 100 100 100 100 97 96 93 81 58 67 84 71 56 48 46 44 42 40 44 60 78 71 68 58 63 65 69 67 62 65
11 14 23 27 77 94 93 89 95 99 100 100 100 100 100 100 100 100 100 99 96 88 100 70 54 75 81 68 60 57 50 43 38 35 39 44 44 42 48 50 50 49 47 44 41
10 13 21 22 51 80 69 98 93 91 100 100 100 100 100 100 100 100 100 100 99 92 93 95 64 66 82 83 70 59 51 47 41 41 40 40 50 43 36 38 42 41 38 37 36
8 12 17 15 31 57 70 77 97 84 77 100 100 100 100 100 100 100 99 100 97 92 89 100 92 72 72 78 85 67 57 52 50 48 44 36 38 45 48 50 51 48 46 42 39
7 10 13 12 18 35 69 78 97 100 81 93 100 100 100 100 100 94 98 98 94 86 86 90 100 91 64 70 77 79 72 60 55 53 44 53 45 41 44 55 58 57 49 40 42
6 7 11 12 15 23 32 69 100 100 92 80 100 100 100 100 100 100 100 94 84 77 54 65 86 98 95 72 67 75 82 74 68 54 50 44 49 46 53 58 64 59 51 51 45
5 10 11 12 16 15 17 39 94 100 100 81 79 100 100 100 100 100 97 91 80 73 58 60 59 70 92 94 68 59 71 73 63 65 58 54 51 48 58 64 71 64 60 60 57
6 8 10 11 14 13 13 34 75 100 100 100 95 92 100 100 100 100 100 83 90 92 82 64 61 60 71 88 83 75 68 55 58 51 50 58 55 59 68 80 82 70 66 61 54

GFSSW_250_rhum_186.txt.gz
RH
100 100 97 89 92 99 79 79 71 70 72 81 99 100 100 100 98 88 86 76 70 66 63 60 57 53 54 55 50 44 46 53 37 48 46 75 44 51 54 53 41 27 30 39 24
100 100 100 99 89 92 100 100 100 100 100 100 100 100 100 98 95 91 90 81 76 72 66 59 58 59 58 58 52 47 47 40 51 50 38 60 38 51 50 53 49 32 37 40 29
75 100 100 100 100 86 90 98 100 100 100 100 100 100 95 93 94 88 84 78 73 64 58 53 47 43 42 40 44 44 44 46 46 43 36 43 41 48 42 47 50 42 44 48 47
100 94 96 100 100 100 80 88 92 100 100 100 100 100 91 82 76 71 67 68 65 53 42 35 27 23 22 22 23 25 29 34 37 38 38 41 36 38 38 38 42 40 39 35 36
100 100 100 96 98 100 100 94 80 99 100 97 86 83 80 70 65 67 61 54 44 31 24 21 19 18 16 16 15 15 16 18 20 24 29 32 34 35 33 33 37 38 38 35 33
100 97 100 100 100 97 100 99 91 87 94 87 88 86 76 68 66 59 49 37 29 25 22 20 19 15 16 16 15 14 13 14 13 15 17 20 27 29 32 28 31 34 34 35 33
70 85 100 85 100 100 94 100 100 100 85 87 88 86 80 71 65 54 41 31 27 25 23 22 20 22 20 19 19 19 18 15 15 13 12 12 15 19 24 27 31 29 29 32 33
68 62 71 74 99 100 100 96 97 99 100 91 88 95 77 74 62 51 39 32 29 27 24 22 25 28 29 23 23 26 25 25 27 21 16 12 11 12 15 20 24 27 29 29 29
90 66 62 70 76 100 100 100 97 95 88 95 100 99 73 68 53 48 44 38 31 30 26 26 27 26 27 21 25 29 32 25 18 15 14 15 16 12 10 13 17 21 23 24 26
71 63 42 50 66 92 100 100 100 98 99 77 72 62 57 58 49 48 46 42 38 37 31 26 25 30 28 33 34 40 24 16 14 10 10 9 9 13 12 10 11 15 18 20 21
32 26 22 27 39 59 100 100 100 100 99 94 76 58 55 57 52 54 52 48 43 38 30 26 26 30 32 35 40 43 22 18 13 10 9 8 8 9 11 14 11 10 13 16 19
14 12 11 13 22 38 80 100 100 100 100 100 96 86 66 67 70 62 52 49 41 35 33 31 29 28 33 34 42 45 29 21 15 12 10 8 8 8 9 11 16 14 12 12 15
11 9 10 12 12 28 43 93 99 99 100 100 100 96 98 73 76 70 58 54 44 36 32 37 35 34 34 35 44 49 43 26 21 15 12 10 9 9 9 10 13 18 18 14 14
11 9 10 13 14 18 29 64 96 78 100 100 100 100 97 91 81 79 72 64 52 38 32 37 40 42 41 39 45 51 51 43 28 24 19 12 11 10 10 10 11 19 24 21 16
10 10 10 12 15 17 28 40 94 83 71 100 100 100 97 92 87 82 73 71 60 50 37 40 40 46 53 44 44 51 55 56 52 31 24 25 14 11 12 11 13 20 26 23 20
10 10 10 12 13 16 24 38 98 78 67 100 100 100 100 98 91 92 80 75 70 55 44 46 40 54 58 55 46 53 55 59 60 55 40 30 28 21 15 14 16 24 32 30 27
9 9 10 13 16 15 21 34 83 63 70 100 100 100 100 100 98 94 88 80 66 56 50 46 43 57 63 54 55 48 62 63 60 58 54 53 41 29 33 33 26 25 32 40 44
8 8 9 13 16 16 17 28 47 82 84 100 100 100 100 100 100 100 100 94 84 76 65 47 44 66 68 54 63 53 50 66 69 54 50 46 49 51 43 45 39 36 36 36 34
7 8 9 13 16 16 17 18 31 81 98 100 100 100 100 100 100 100 100 100 92 89 82 71 56 64 79 58 63 63 51 47 53 51 48 44 48 50 46 48 53 56 62 57 50
7 7 8 12 15 15 15 15 36 70 78 96 96 100 100 100 100 100 100 100 100 99 88 87 86 71 91 81 60 74 64 53 46 47 46 42 38 34 33 35 41 50 58 58 53
6 6 10 12 16 14 14 15 28 50 76 98 97 97 100 100 100 100 100 100 100 100 98 85 75 79 90 99 72 71 78 73 53 51 58 50 42 33 30 30 32 37 37 32 32
6 6 10 11 14 15 17 18 24 41 70 96 100 90 100 100 100 100 100 100 100 100 95 95 87 84 95 100 96 70 66 63 71 68 61 54 68 39 40 34 34 37 35 38 40
6 6 8 8 10 14 16 18 20 30 57 100 100 90 100 100 100 100 100 100 100 100 100 93 90 89 77 87 100 96 61 66 67 73 71 61 60 65 45 43 45 41 40 41 44
5 7 8 7 10 16 17 18 20 35 46 71 100 95 100 100 100 100 100 100 100 100 100 90 82 82 87 81 83 100 97 82 72 75 63 76 54 54 46 56 52 45 42 40 43
6 7 8 7 10 16 18 17 18 33 50 60 100 91 100 100 100 100 100 100 100 100 95 94 85 79 76 74 73 84 100 99 91 70 73 68 89 44 46 50 49 47 46 49 52
7 7 9 8 10 15 14 13 17 27 51 68 100 100 100 100 100 100 100 100 98 98 90 95 86 80 74 78 79 69 68 85 93 91 68 55 61 50 56 51 46 47 45 50 60
7 6 8 10 12 14 14 16 20 24 48 78 100 100 98 100 100 100 100 100 100 97 94 94 100 100 85 73 72 70 71 52 57 65 85 80 55 49 47 48 50 51 54 61 66

GFSSW_250_rhum_192.txt.gz
RH
100 100 100 91 99 100 100 100 100 69 69 54 50 45 25 27 32 37 39 45 51 56 50 44 38 27 23 41 48 44 41 45 43 42 44 49 54 44 43 48 48 42 26 31 38
100 100 100 100 88 85 100 100 100 100 72 73 67 63 62 41 42 39 49 49 47 40 40 39 32 40 55 60 58 52 54 48 45 44 40 44 46 40 36 44 56 56 43 32 26
65 100 100 100 100 95 93 100 100 100 100 94 96 67 76 84 82 79 74 66 70 64 69 60 71 65 76 70 65 67 63 56 54 50 41 39 44 42 34 39 60 59 47 37 36
80 79 99 100 100 100 100 100 100 100 100 100 100 99 83 88 86 86 99 95 98 100 100 100 99 100 100 96 82 74 64 56 49 47 42 37 41 38 33 34 36 56 58 53 36
100 81 86 89 99 100 100 100 98 100 100 100 100 100 91 100 100 100 100 100 100 100 100 100 100 100 98 92 82 68 54 48 42 39 38 37 36 37 29 27 26 27 36 48 48
100 100 94 80 98 100 100 100 95 98 100 100 100 100 100 100 100 100 100 100 100 100 95 100 100 99 92 78 69 58 49 34 26 21 19 18 18 20 24 29 31 30 29 30 40
100 100 94 82 85 94 100 100 100 95 100 100 100 100 100 100 100 100 100 100 100 100 100 100 100 92 67 63 63 56 34 25 21 19 16 15 15 14 14 15 17 21 25 26 28
87 83 96 100 91 85 97 100 100 100 90 96 100 100 100 100 100 100 100 100 100 100 100 100 91 66 62 52 46 40 28 23 21 20 16 14 15 17 14 14 13 13 13 18 24
83 91 90 57 58 82 92 100 99 100 100 95 98 100 100 100 100 100 100 100 100 100 100 94 69 66 58 42 39 31 26 24 23 19 17 20 18 18 15 14 17 16 13 11 12
70 58 54 50 51 52 79 91 100 98 93 83 70 100 100 100 100 100 100 97 100 100 100 86 65 66 52 48 41 33 27 25 24 19 24 27 25 26 29 25 22 18 16 14 12
50 56 58 60 57 54 59 68 81 98 76 78 48 75 100 100 100 100 100 100 100 88 95 84 60 58 63 53 46 38 30 30 28 19 26 27 28 39 33 22 16 14 12 13 15
49 60 67 66 64 58 54 62 63 70 69 85 79 49 89 100 100 100 100 100 100 98 84 90 52 60 61 57 53 43 38 34 29 22 24 27 25 40 33 18 12 11 10 9 9
48 49 44 45 47 52 49 47 39 52 61 76 77 55 58 97 100 100 100 100 100 99 96 92 59 58 64 58 53 44 42 33 29 24 26 26 29 38 33 20 14 10 9 8 8
30 19 18 15 15 21 25 21 16 20 35 50 64 48 43 62 91 100 100 100 100 100 100 85 73 56 66 57 54 48 44 34 30 26 26 26 34 30 42 29 17 12 10 9 8
11 8 9 8 9 10 12 11 9 11 11 22 40 47 42 38 82 100 100 100 100 100 100 100 97 64 72 61 54 51 45 41 33 28 28 23 34 27 42 45 28 18 12 11 9
7 7 7 7 8 10 10 9 8 8 7 12 17 32 40 38 46 90 96 100 100 100 100 100 97 77 70 62 55 52 51 43 37 31 30 26 36 28 35 40 40 25 17 13 12
6 6 6 6 9 8 10 9 7 6 9 11 14 14 29 35 36 61 94 98 100 100 100 100 99 74 68 62 58 60 57 47 40 34 32 30 39 40 42 43 42 39 32 25 16
4 4 4 5 6 6 7 7 5 9 11 12 13 14 17 27 33 41 83 100 91 100 100 100 92 69 64 62 65 65 60 53 48 40 35 33 41 42 43 51 47 40 39 39 41
3 3 4 6 5 5 5 4 6 11 10 13 14 14 13 18 30 40 58 98 97 100 100 100 85 63 62 66 71 71 66 56 52 46 39 35 37 47 43 43 44 42 37 33 33
4 4 6 5 4 5 4 5 8 11 11 12 14 14 14 16 27 35 48 94 99 100 100 100 91 66 61 64 74 80 75 57 56 52 43 40 39 41 46 49 46 42 40 36 33
4 5 5 5 5 4 5 7 9 11 11 12 15 14 13 16 29 34 43 96 100 100 100 100 98 74 68 72 86 83 76 58 53 53 52 48 43 42 44 47 52 50 43 39 41
3 4 3 5 5 5 7 10 9 9 10 11 14 14 15 16 28 34 50 78 100 100 100 100 100 87 78 82 81 80 75 57 55 68 76 59 57 49 54 56 54 50 46 44 45
2 3 2 4 6 7 8 8 8 9 10 11 14 16 17 17 25 36 56 78 100 98 100 100 100 98 86 80 80 83 86 70 58 56 69 83 81 66 69 73 71 52 48 48 44
2 3 3 4 7 7 8 8 10 11 11 13 14 18 19 18 23 34 63 87 100 100 100 100 100 100 97 89 84 85 86 66 45 50 78 86 80 91 94 92 74 65 58 56 51
3 3 3 4 6 7 7 8 11 11 10 14 15 22 24 22 24 32 55 94 100 100 100 100 100 100 100 91 86 80 75 68 58 65 75 100 91 83 95 100 99 79 72 67 64
3 3 3 4 6 8 7 8 11 10 11 17 20 28 32 29 29 36 44 81 100 100 100 100 100 100 100 95 92 85 84 78 72 80 82 90 97 93 91 97 88 81 67 63 62
4 4 3 4 6 8 9 8 9 10 13 19 20 21 28 32 32 40 43 69 98 100 100 100 100 100 100 98 93 88 99 100 97 92 93 94 96 90 91 92 83 74 62 58 56

GFSSW_250_rhum_195.txt.gz
RH
93 100 100 100 100 93 62 85 99 91 97 72 68 39 31 26 26 32 36 40 57 63 63 82 78 79 99 100 100 89 68 50 42 32 20 18 29 32 44 37 40 33 31 28 21
84 92 100 100 99 100 99 62 92 100 100 100 88 69 43 41 37 27 35 41 49 55 78 89 98 90 100 100 82 60 44 36 29 23 22 27 42 50 50 48 43 39 38 43 38
66 100 83 100 100 100 100 100 74 72 100 100 100 96 59 48 50 44 29 36 44 53 68 92 100 100 90 73 56 45 37 32 31 34 33 32 39 44 47 48 46 40 38 34 40
28 66 100 100 100 100 100 100 100 94 100 100 100 100 94 72 63 62 56 45 47 50 48 51 62 62 54 44 43 43 43 41 49 45 46 39 40 44 46 45 40 34 36 39 34
25 29 72 100 100 100 93 100 100 100 100 99 100 100 100 95 82 81 87 81 72 82 81 63 55 52 54 56 53 64 58 63 59 54 49 44 44 45 46 42 40 39 40 41 39
23 29 43 72 100 100 100 100 100 96 100 100 100 100 100 100 86 100 75 91 96 99 99 82 71 79 82 77 88 83 75 83 77 61 54 53 50 46 44 42 42 38 34 37 40
21 26 38 52 69 100 100 100 100 100 89 100 100 100 100 100 100 100 92 92 100 100 100 100 100 100 100 100 100 97 100 96 92 66 56 43 33 26 22 19 19 20 24 29 37
19 27 35 49 67 99 100 100 100 100 100 99 98 100 100 100 100 100 96 100 100 100 100 100 100 100 100 100 100 92 100 88 70 59 51 33 24 21 19 16 14 13 14 14 16
22 26 30 38 48 64 81 100 100 100 100 100 98 97 100 100 100 100 100 100 100 100 100 100 100 100 100 100 100 98 88 65 62 53 41 28 22 21 18 15 15 14 14 15 14
23 29 34 48 46 46 61 64 96 100 100 81 100 92 100 100 100 100 100 94 100 100 100 100 100 100 100 100 100 97 68 61 49 44 33 26 24 20 17 20 20 18 19 20 18
24 28 42 47 60 52 44 45 57 73 97 95 88 100 99 100 100 93 100 100 86 100 96 100 100 100 100 100 97 78 66 58 43 39 31 28 25 22 19 22 22 24 33 34 28
24 30 36 42 54 56 65 70 58 49 62 86 91 100 100 100 100 100 90 100 100 100 100 98 100 100 100 100 100 67 69 57 49 45 37 33 26 24 21 20 24 29 36 32 20
20 26 36 40 48 52 56 77 75 58 44 85 100 99 100 100 100 100 94 92 100 94 100 100 100 100 99 96 88 65 64 56 54 50 45 36 29 25 23 23 25 36 36 33 17
19 24 28 30 32 31 32 30 24 33 37 48 76 100 100 100 100 100 92 94 91 100 100 100 100 100 100 94 80 68 61 64 59 54 49 36 31 23 22 24 28 28 39 38 19
17 16 11 8 9 12 11 10 10 9 8 28 51 74 100 99 100 100 100 83 98 99 97 100 100 100 100 100 87 70 58 66 62 57 50 41 31 29 23 24 26 31 37 36 32
10 6 6 6 6 9 8 8 9 7 6 11 28 54 82 91 89 100 98 73 87 94 86 95 93 100 100 100 99 73 59 66 64 57 51 46 34 34 26 26 29 34 38 34 34
5 5 5 4 4 4 4 5 6 5 8 9 13 32 57 69 58 97 100 76 72 89 88 89 94 99 100 100 96 93 56 62 66 58 54 49 38 38 30 29 32 39 44 42 37
4 4 3 3 3 3 4 3 3 5 9 11 12 15 25 47 57 58 97 72 72 74 88 95 92 100 100 100 100 100 61 59 69 60 55 52 45 40 35 33 36 40 42 44 38
2 3 3 3 4 4 4 3 4 7 9 10 12 12 12 18 29 52 61 84 83 87 77 95 77 87 100 99 100 97 94 62 69 59 57 54 54 42 38 38 40 42 43 40 39
2 4 3 4 4 4 4 5 6 6 6 8 11 12 12 13 13 24 47 61 86 84 63 86 92 73 96 93 90 83 100 74 67 56 57 58 60 49 40 40 44 45 46 43 42
3 3 3 3 3 3 5 7 8 6 8 7 10 12 12 13 15 15 34 53 69 89 78 75 91 78 72 86 89 97 100 96 67 57 58 65 64 54 46 42 48 53 51 44 44
3 3 2 2 2 3 5 8 7 7 7 6 10 13 12 14 14 17 22 41 52 65 73 85 97 88 69 83 88 100 93 99 71 57 53 65 69 58 52 44 44 49 48 52 52
3 2 2 2 2 3 4 7 7 6 7 7 12 14 13 13 14 13 14 21 34 44 60 80 93 99 75 83 78 85 86 99 72 63 61 71 76 64 50 53 56 54 58 64 60
2 2 2 3 3 3 4 6 7 6 8 8 12 12 14 14 15 16 17 16 20 34 51 72 91 100 90 99 99 100 100 98 68 62 65 74 80 65 49 64 77 80 81 86 91
2 2 3 3 3 3 4 6 7 7 8 9 11 15 16 15 17 17 19 19 21 26 46 60 83 100 83 92 94 100 87 78 70 64 57 66 63 59 57 60 72 86 87 91 100
2 2 3 3 4 4 5 6 8 8 10 10 11 15 16 16 17 18 18 19 22 25 34 50 66 91 99 94 99 100 94 86 80 71 69 83 82 65 52 54 73 76 80 86 98
2 3 3 4 4 4 5 6 8 9 11 13 12 15 18 19 18 21 20 23 22 26 33 42 56 85 100 93 98 96 100 98 96 81 82 77 79 65 64 62 62 69 78 76 78

GFSSW_250_rhum_201.txt.gz
RH
12 11 12 13 15 24 34 53 67 100 100 100 100 100 65 52 54 35 29 67 100 100 100 79 76 80 77 65 70 73 70 72 71 69 69 62 60 63 67 73 60 50 48 44 40
12 10 11 11 13 17 25 30 64 82 100 100 100 100 100 65 56 58 56 29 32 74 100 100 86 63 65 72 63 63 61 64 56 58 59 58 64 61 61 61 57 60 46 38 36
10 10 10 12 11 14 17 31 34 81 100 100 100 100 100 100 69 60 73 66 46 28 31 75 100 99 67 57 58 59 62 62 50 58 55 60 64 67 61 57 60 57 49 44 38
9 9 10 11 11 12 15 20 30 44 73 100 100 100 100 100 88 76 78 90 76 66 33 24 33 61 100 97 64 67 71 81 72 68 70 75 77 80 80 76 71 73 59 47 35
8 8 9 9 10 11 12 15 19 29 64 85 100 100 100 100 100 93 88 91 94 80 85 42 24 27 33 99 100 90 90 97 100 97 97 88 88 84 90 90 96 77 61 43 30
7 8 8 8 9 10 12 14 18 23 36 77 92 100 100 100 100 100 90 90 88 99 87 82 41 24 26 37 85 100 100 100 100 100 100 100 100 92 86 96 89 73 48 35 28
6 7 8 8 9 10 10 13 16 20 28 37 88 99 93 100 100 100 100 90 90 96 100 94 71 38 33 30 32 45 75 95 96 94 99 100 100 100 86 98 76 53 40 32 30
6 7 7 8 9 10 11 11 15 19 27 34 48 94 100 90 100 100 100 100 87 90 100 100 90 58 57 38 37 39 48 74 92 96 100 100 100 100 100 83 56 42 34 35 36
6 7 7 7 8 10 11 13 14 18 26 36 51 74 100 100 100 100 100 100 100 99 92 100 100 81 70 68 40 38 56 78 100 100 100 100 100 100 87 63 47 39 40 45 45
7 7 7 8 9 9 12 14 18 18 22 35 58 90 100 100 100 100 100 100 100 100 79 86 100 96 73 74 86 95 86 94 100 100 100 100 100 88 72 60 58 58 55 47 49
7 7 8 9 10 11 12 17 20 21 24 26 29 60 99 100 100 100 95 94 100 100 100 97 86 100 100 95 90 96 82 79 83 83 97 100 90 76 72 73 71 75 60 58 44
7 8 8 9 10 13 18 23 30 26 25 28 27 27 66 100 100 100 100 100 100 100 100 100 93 100 100 99 76 93 85 78 83 87 84 79 85 77 91 95 86 83 71 54 40
6 8 8 8 10 16 22 30 30 30 23 31 35 33 38 66 100 100 100 100 100 100 100 100 100 100 100 100 77 86 96 100 100 99 97 85 100 92 100 93 99 79 60 52 33
6 7 7 8 9 15 18 19 22 24 14 27 32 42 40 44 73 100 100 100 100 100 100 89 100 100 100 100 96 70 87 100 100 99 96 94 100 98 100 100 86 57 54 47 30
6 6 6 6 8 9 7 7 6 8 6 13 21 32 47 41 88 99 100 100 100 100 100 100 100 100 100 100 100 100 92 100 100 96 98 94 96 100 100 100 70 52 46 40 30
5 5 5 6 6 4 4 4 4 5 5 8 14 23 38 50 60 93 98 100 100 100 100 100 89 99 100 100 100 96 77 96 100 96 79 100 83 100 100 100 68 56 46 47 37
5 4 4 5 4 3 3 2 2 3 4 5 9 12 22 40 53 91 84 100 100 100 100 100 100 95 98 100 100 100 78 65 98 100 99 100 87 100 99 91 70 58 54 51 42
4 4 4 4 3 2 2 3 4 4 5 5 5 9 11 17 31 57 85 78 100 100 100 100 100 100 92 100 100 100 100 65 85 100 100 100 92 100 100 78 70 66 59 56 46
4 4 4 3 2 2 3 4 4 4 4 5 5 5 9 12 14 30 59 82 93 98 98 100 100 100 97 88 100 100 100 81 90 97 97 100 100 100 100 83 69 66 69 61 52
4 4 3 2 2 2 3 3 3 3 3 4 6 5 5 9 12 16 28 61 86 94 96 96 96 100 100 89 78 100 100 100 74 78 89 100 100 100 100 95 71 61 63 62 54
4 4 3 2 2 3 3 2 2 2 3 3 5 6 5 6 10 13 15 32 59 80 79 82 79 98 100 82 93 80 100 100 85 57 70 95 100 100 100 100 79 63 60 62 56
4 3 3 2 3 3 3 2 2 2 3 3 4 6 7 6 6 11 12 13 30 64 81 82 83 85 89 100 95 86 86 100 100 94 62 72 100 100 100 100 86 72 64 61 62
4 3 3 2 3 3 2 2 3 3 4 3 4 5 7 7 6 8 12 13 14 35 71 82 78 81 76 71 76 85 71 92 100 85 93 57 65 100 100 100 96 75 67 65 64
4 3 2 3 4 2 2 2 3 4 4 4 4 5 7 8 8 7 10 12 13 15 44 65 67 82 87 87 98 92 80 79 71 76 84 98 100 100 100 100 100 91 68 66 65
3 3 2 4 3 3 2 3 3 4 5 4 4 5 8 8 8 8 9 11 14 14 18 39 50 83 95 92 92 93 90 84 74 92 80 100 100 100 100 100 100 100 93 76 68
4 3 2 4 3 3 3 3 4 5 6 4 5 7 9 10 10 9 9 11 13 13 14 15 42 73 93 96 94 92 87 70 67 72 67 77 98 100 100 100 100 100 100 85 70
4 2 3 4 3 3 3 3 5 5 5 5 6 9 10 9 10 10 12 12 12 13 13 13 15 33 78 85 100 88 83 84 80 78 83 70 98 100 100 100 100 100 100 97 92

GFSSW_250_rhum_204.txt.gz
RH
12 9 8 8 9 10 12 15 15 26 54 68 94 100 88 83 96 51 44 27 26 79 100 100 100 100 100 100 99 100 100 100 100 100 100 91 74 52 39 40 36 34 33 33 31
11 8 8 8 8 9 11 14 15 16 30 68 81 98 100 97 87 99 72 50 31 29 63 100 100 100 100 100 91 90 92 87 91 83 85 86 88 74 74 68 52 39 35 29 28
9 7 7 7 8 8 8 10 13 15 20 39 74 96 100 100 98 97 97 60 54 35 28 83 100 100 100 100 94 87 100 100 98 86 86 82 96 94 84 76 71 59 50 48 56
9 6 6 7 8 8 8 8 11 14 18 26 44 81 80 100 100 86 100 85 67 63 45 29 62 100 100 100 95 85 90 93 100 92 87 78 73 74 69 64 61 60 56 54 53
9 7 6 7 6 7 8 9 9 11 15 24 34 68 100 92 100 100 100 100 94 69 59 61 32 40 91 100 100 100 86 77 82 84 75 74 65 60 59 53 54 57 59 59 50
13 6 6 6 6 7 8 8 9 10 11 14 26 41 85 100 89 100 100 100 99 92 85 84 66 45 29 47 93 100 100 100 84 69 64 66 63 61 55 55 62 58 66 65 59
11 6 6 6 6 8 8 8 9 10 11 12 15 25 54 100 100 95 100 100 92 100 97 93 91 72 74 37 26 45 87 100 100 90 68 62 58 72 63 73 82 79 78 85 72
10 6 6 6 6 7 8 9 10 11 11 13 14 16 41 92 87 97 96 100 100 100 97 100 100 79 82 76 47 24 28 51 92 100 100 93 98 84 89 91 100 95 93 87 82
11 7 6 6 6 7 8 9 11 10 11 12 14 15 25 52 84 94 94 100 100 100 100 79 100 97 73 88 80 42 26 29 36 71 100 100 100 100 100 100 100 100 92 93 92
11 7 6 6 7 7 7 8 9 10 11 11 14 17 22 40 55 81 100 98 100 100 100 99 77 100 92 76 98 70 48 37 35 35 64 100 100 100 100 99 92 89 94 100 93
11 7 7 7 7 7 7 7 8 9 12 12 14 18 25 34 51 64 93 100 93 92 100 100 100 93 100 100 96 94 60 46 40 35 36 49 73 93 100 98 94 95 100 100 99
10 7 7 7 7 7 7 9 10 11 13 16 19 17 23 36 57 55 76 100 100 100 100 100 100 100 100 100 100 98 84 65 46 39 39 44 66 75 94 100 100 97 100 100 88
8 6 6 6 7 7 9 12 14 13 12 18 22 26 22 24 62 99 87 98 100 99 100 100 100 100 100 100 100 100 100 84 63 54 51 58 95 97 100 100 100 100 100 93 79
8 6 6 6 6 8 8 9 9 10 6 15 14 29 33 26 31 64 100 100 93 100 100 100 92 100 95 100 100 100 100 99 78 50 59 72 92 89 100 100 100 100 95 88 96
7 5 5 5 5 5 6 4 4 4 4 6 8 14 33 30 44 49 99 100 100 100 100 96 100 100 100 100 100 100 100 100 82 65 59 78 90 89 100 100 100 98 83 99 97
6 5 5 5 4 4 4 4 3 3 4 6 9 10 10 28 40 45 62 84 99 100 100 98 92 100 86 100 77 99 100 100 100 70 50 68 80 98 100 100 97 84 99 100 100
5 5 4 4 4 3 3 3 3 3 3 4 6 7 6 11 36 43 51 68 88 88 100 100 100 100 88 86 77 87 100 100 100 66 52 77 74 100 100 100 100 100 100 100 100
5 4 4 4 4 3 3 2 2 3 4 4 4 4 6 7 14 37 53 50 73 96 100 100 100 100 100 98 76 99 100 94 100 98 66 84 71 100 100 100 100 100 100 100 100
4 4 4 4 4 3 2 2 3 4 4 5 5 5 4 5 7 14 37 60 58 92 93 100 100 100 100 100 94 73 100 100 90 100 79 85 83 100 100 100 100 100 100 100 94
4 4 4 4 3 2 2 3 3 3 3 3 5 6 6 5 6 8 14 40 58 67 94 100 100 100 100 100 96 60 79 100 84 94 79 80 82 100 100 100 97 100 100 96 86
4 5 4 5 3 2 2 3 3 2 2 2 3 4 6 6 5 6 8 17 54 62 82 92 81 100 100 100 100 96 61 74 80 82 88 79 76 100 100 100 100 93 95 100 97
4 5 5 4 3 2 2 3 3 2 2 2 3 3 5 7 6 5 6 10 23 50 61 92 100 95 100 100 100 100 96 62 87 83 95 76 81 100 100 100 100 100 100 100 97
5 5 6 4 3 2 3 3 2 3 3 3 4 4 4 6 8 7 6 8 12 24 47 77 94 97 82 98 100 100 100 97 61 72 76 75 83 100 100 100 100 100 100 100 100
6 4 6 4 2 2 4 3 3 3 3 3 4 5 5 5 7 8 7 7 10 12 24 45 66 85 85 82 100 100 100 98 58 55 74 77 70 84 100 100 100 100 100 100 100
5 5 5 4 2 3 4 3 3 4 4 4 6 6 6 5 6 9 9 7 8 11 13 26 51 79 99 99 99 92 100 100 99 56 62 82 84 100 100 100 100 100 100 100 100
5 6 4 4 2 4 4 3 3 4 4 4 6 7 6 5 6 10 10 8 8 9 12 14 27 55 69 100 94 90 94 93 99 58 47 71 89 99 100 100 100 99 100 100 100
5 7 4 4 3 4 4 4 4 4 5 6 6 6 6 6 7 9 10 11 9 8 11 13 15 31 59 82 99 72 80 82 99 96 66 47 86 100 100 100 100 100 84 82 84

GFSSW_250_rhum_207.txt.gz
RH
18 12 13 9 7 7 7 7 7 8 9 14 25 49 71 90 91 90 43 39 34 37 100 100 100 100 100 100 100 100 100 100 100 100 100 100 95 89 82 57 28 32 45 51 43
15 20 10 8 7 7 6 7 7 8 9 11 17 38 63 70 97 93 82 54 44 35 37 97 100 100 100 100 100 100 100 100 100 100 100 100 100 100 100 96 77 42 37 45 54
17 18 13 9 7 7 6 6 6 7 8 10 12 22 56 82 84 98 98 99 61 44 39 72 85 100 100 100 100 100 100 100 100 100 100 100 100 100 100 100 100 83 48 46 49
17 15 13 8 6 6 6 6 6 7 8 10 11 13 30 58 94 89 100 100 100 80 45 38 31 59 100 100 100 100 100 100 100 100 100 100 100 100 97 100 100 97 87 61 48
18 12 10 7 6 6 6 6 7 7 8 9 12 12 15 33 79 100 84 100 100 98 96 57 43 28 46 100 100 99 100 100 100 100 100 94 96 97 90 85 72 74 94 82 69
12 10 10 7 6 6 6 6 7 8 8 8 10 13 13 19 56 96 100 88 100 100 100 95 59 48 29 49 100 100 100 100 100 100 100 100 98 97 97 78 80 76 90 85 75
17 13 10 8 6 6 6 7 7 8 8 8 9 10 14 19 35 63 100 100 78 100 100 100 76 58 58 32 38 99 100 97 100 100 100 100 99 100 98 95 95 83 70 77 71
12 18 12 9 7 6 6 7 8 8 8 8 8 8 11 14 18 32 75 100 98 92 98 100 100 91 63 60 43 30 53 100 100 97 92 99 94 96 86 91 88 84 76 74 64
14 16 16 9 6 6 6 6 8 7 9 8 8 8 11 14 14 23 36 96 100 98 77 92 100 100 97 79 74 52 36 34 68 100 100 98 88 84 79 86 86 80 71 68 63
11 13 11 8 6 6 6 6 7 7 8 9 9 8 12 20 14 16 31 62 96 100 99 62 100 100 100 97 98 91 83 78 40 36 59 98 100 100 91 84 86 76 65 60 56
13 14 8 7 6 6 6 7 7 7 8 11 12 9 10 15 18 12 17 33 86 76 100 98 73 100 100 100 100 100 93 86 79 39 24 28 51 100 100 100 99 82 68 75 73
11 8 7 6 6 5 6 7 7 7 7 9 12 15 12 16 20 17 16 22 60 99 99 96 84 90 100 100 100 100 100 90 77 64 45 23 25 40 84 100 100 100 100 100 96
10 7 6 6 5 5 6 6 6 7 7 11 12 13 21 16 22 19 17 21 31 87 98 96 100 100 100 100 91 100 100 100 93 77 70 41 30 29 41 92 100 100 100 100 100
7 6 6 5 4 4 5 4 5 5 4 6 6 7 15 28 22 24 21 19 27 50 92 89 100 100 99 74 100 99 100 100 99 99 80 57 34 26 32 40 78 100 100 100 100
6 6 5 4 4 4 4 4 4 3 4 4 5 5 6 15 36 25 26 26 28 47 70 84 92 100 100 92 100 100 100 100 100 100 81 72 47 31 33 40 59 80 99 98 95
5 5 5 4 4 4 4 4 4 3 3 3 4 4 4 7 23 27 26 22 34 42 66 100 82 100 100 100 94 96 100 100 100 100 79 86 63 54 43 75 96 93 99 100 98
5 5 5 4 4 4 4 4 3 2 2 2 3 3 4 5 10 31 34 29 28 34 46 93 100 92 100 100 100 97 76 90 97 100 76 98 65 92 46 60 80 96 100 100 100
4 4 4 3 4 4 4 4 3 2 2 3 4 4 4 4 6 20 36 33 36 40 69 74 100 100 90 100 100 100 98 68 62 100 100 96 71 89 93 95 99 100 100 100 100
5 5 4 4 4 4 4 3 2 2 3 4 4 5 4 4 5 7 25 40 41 53 47 95 99 100 100 100 100 100 100 96 58 55 100 89 88 100 100 85 100 100 100 100 100
5 5 4 4 4 4 4 3 2 3 4 3 4 4 5 5 5 6 8 28 44 43 54 68 96 98 100 100 99 95 100 100 89 51 80 100 99 100 100 96 83 100 100 100 100
5 5 4 4 4 4 3 3 2 3 3 3 3 3 4 5 6 6 8 12 36 48 51 58 77 94 92 100 99 97 100 100 100 63 46 94 100 100 100 100 85 100 100 100 100
5 4 4 4 4 5 3 2 3 4 3 2 3 3 3 4 6 7 6 9 17 42 52 57 71 92 100 99 100 100 73 100 100 100 64 47 99 92 100 100 100 90 100 100 100
5 4 4 5 4 5 4 2 3 3 3 3 3 4 4 4 5 7 8 7 11 24 54 52 56 86 81 86 86 100 96 82 91 97 99 61 94 100 100 100 100 98 100 100 99
5 5 5 5 5 4 4 2 4 4 3 3 4 5 5 6 5 6 8 8 9 13 30 47 56 66 90 100 100 100 100 100 83 66 92 74 70 100 100 100 100 100 97 100 100
5 5 5 5 6 4 4 3 4 4 3 4 4 6 6 6 6 5 7 8 9 10 15 34 53 63 69 99 92 87 100 100 97 100 59 88 83 98 100 100 100 96 97 96 100
5 5 5 5 7 4 3 3 5 4 4 4 5 6 7 7 7 7 6 8 10 10 10 19 48 50 59 80 100 81 88 100 100 90 60 62 69 96 100 100 100 100 93 100 100
5 5 5 6 6 4 4 4 5 4 4 5 6 7 8 8 8 8 6 8 10 11 9 11 19 41 52 58 86 75 74 94 100 100 77 60 57 73 97 100 100 100 90 96 100

GFSSW_250_rhum_210.txt.gz
RH
16 14 16 16 13 12 8 6 5 5 6 6 6 7 10 16 34 73 59 45 32 34 96 100 100 100 100 100 100 100 92 100 100 100 100 87 74 77 72 41 32 31 46 58 62
13 13 13 16 18 13 9 7 5 5 5 6 6 7 8 11 23 49 77 74 48 39 59 91 100 100 100 100 100 100 100 100 100 100 100 98 95 90 88 80 59 36 34 36 44
10 13 13 16 12 11 9 7 5 5 5 5 6 6 7 10 13 37 62 85 81 58 42 71 100 100 100 100 100 99 100 100 100 100 100 100 100 100 98 94 91 70 62 42 29
9 9 12 10 10 9 9 7 6 5 5 5 6 6 7 8 13 28 58 71 80 97 58 43 64 88 100 100 100 100 100 100 100 100 100 100 100 100 100 100 97 93 94 87 75
8 8 10 10 8 8 7 7 6 5 5 6 6 6 7 8 14 20 40 70 76 85 100 59 44 49 100 100 100 100 100 100 100 100 100 100 100 100 100 100 100 100 100 100 100
8 8 9 7 8 8 6 6 6 5 5 6 6 6 7 8 10 16 28 63 74 84 98 100 78 57 39 100 100 100 100 100 100 100 100 100 100 95 100 100 100 100 100 100 100
8 8 8 8 9 7 6 6 6 5 5 5 6 7 7 10 10 12 19 41 68 86 92 91 100 67 55 42 95 100 100 100 100 100 100 100 100 100 100 99 100 100 100 100 99
8 9 9 8 8 6 6 6 6 5 5 5 5 7 9 9 9 10 15 29 69 81 99 82 95 100 75 51 44 77 100 100 100 100 100 100 100 100 100 100 97 87 97 92 87
10 9 10 8 7 6 6 6 5 5 5 5 6 6 9 11 10 11 12 16 33 72 100 93 82 80 100 85 67 49 52 98 100 100 100 100 100 100 100 100 100 97 85 81 81
11 9 8 7 6 5 5 6 5 5 4 5 6 6 10 10 12 10 11 14 18 52 69 100 85 74 81 94 91 93 62 46 41 100 100 100 99 100 100 100 100 100 97 88 84
10 8 7 5 6 5 5 5 5 5 4 5 6 8 9 10 12 11 10 12 14 18 52 91 89 79 100 100 100 100 92 74 54 30 97 100 100 100 100 100 100 100 100 100 93
8 6 5 5 5 4 5 4 4 5 6 6 5 6 8 13 14 13 11 11 12 16 35 41 55 87 83 93 100 100 100 98 86 54 34 61 100 100 100 100 91 90 83 91 95
7 5 5 4 5 4 4 4 4 4 5 8 6 6 7 8 20 15 15 10 14 14 20 44 87 100 96 83 99 100 100 100 97 80 73 44 35 59 86 100 100 100 100 89 74
5 5 4 4 4 4 4 3 3 3 4 5 5 6 6 6 11 20 21 16 9 16 17 30 58 98 100 89 78 100 100 100 100 73 100 87 60 53 36 31 49 76 95 100 100
4 4 4 4 4 4 4 3 3 3 4 4 4 3 3 4 8 14 25 20 12 18 19 21 55 80 93 100 87 82 100 100 100 100 87 97 78 80 63 47 28 25 35 54 73
4 4 4 4 4 4 3 3 3 3 4 3 2 2 3 4 5 7 15 20 20 12 21 22 34 77 97 100 100 93 86 99 100 100 100 88 72 100 71 66 47 27 28 33 75
4 4 4 4 4 4 3 3 3 4 3 3 2 2 2 3 4 6 10 16 19 14 17 22 24 68 89 95 100 100 76 81 88 77 100 100 91 96 72 74 55 38 33 38 57
4 4 4 4 4 4 3 4 4 4 3 2 3 3 3 3 4 5 7 9 18 29 22 25 27 30 98 83 100 100 100 76 67 70 85 100 100 89 100 99 90 58 43 41 49
4 5 5 5 4 4 4 4 4 4 3 2 3 4 4 4 4 5 7 8 12 30 25 27 31 40 65 65 99 98 100 90 75 78 77 89 100 100 100 100 100 83 65 60 67
5 5 5 5 4 4 4 4 5 4 3 3 4 4 4 4 5 5 5 8 9 22 31 33 40 40 67 66 62 83 100 100 78 72 73 88 100 100 100 100 100 90 77 56 73
5 5 5 5 4 4 4 4 5 4 3 3 4 3 3 3 4 6 6 7 9 17 33 29 29 38 43 56 63 95 100 100 100 80 72 74 100 100 100 100 100 100 89 64 73
5 5 5 5 5 4 5 5 5 3 3 4 4 3 3 3 3 5 6 6 9 11 26 32 28 34 56 77 98 59 96 100 100 100 66 74 96 100 100 100 100 100 91 79 69
5 5 5 5 5 5 5 6 4 3 3 4 4 3 4 4 3 4 6 8 8 11 21 32 26 36 48 57 72 97 77 93 100 100 100 67 61 95 100 100 100 100 96 97 63
5 5 5 5 5 5 6 7 4 4 3 4 4 4 4 4 5 5 5 7 8 11 14 26 34 39 47 91 83 100 100 92 94 100 100 100 69 55 87 100 100 100 100 99 85
5 5 5 5 5 5 6 6 5 3 4 5 4 4 4 4 5 6 6 6 8 10 14 16 32 39 54 75 85 92 100 97 74 99 91 100 100 87 61 97 100 100 99 97 97
5 5 5 5 5 6 8 6 4 3 4 5 4 4 4 5 6 7 7 6 8 10 10 12 20 33 47 51 96 79 94 100 100 75 85 97 96 100 73 62 96 100 100 85 78
5 5 6 6 6 6 9 5 5 3 5 5 5 5 5 6 7 8 9 8 9 10 10 11 13 16 32 44 67 67 66 88 100 100 97 84 100 100 100 72 79 91 100 100 91

GFSSW_250_rhum_213.txt.gz
RH
11 9 8 8 7 7 6 8 8 7 7 6 6 5 5 5 6 8 10 13 20 28 20 20 48 45 62 71 94 100 100 100 100 100 100 99 86 100 79 64 61 55 59 56 66
11 8 8 8 6 6 6 6 7 6 6 5 6 5 5 5 6 8 9 12 18 36 27 19 41 47 43 68 87 83 100 100 100 100 100 95 84 100 87 73 65 61 47 41 44
10 7 6 5 5 6 7 7 6 6 5 6 6 5 5 5 6 6 9 12 17 26 41 26 29 99 85 73 100 90 100 100 100 100 100 85 96 100 100 89 74 67 61 43 32
8 6 5 5 5 6 7 6 6 6 5 5 6 5 5 5 6 8 8 9 15 29 38 36 28 70 100 94 100 93 100 100 100 100 100 96 100 100 100 97 90 72 70 66 44
6 5 5 7 7 7 7 6 5 5 5 5 5 5 5 5 8 7 8 10 14 20 43 41 37 37 100 100 100 100 100 100 100 100 100 100 94 100 100 100 100 84 75 77 70
5 6 7 7 7 7 7 6 5 5 4 4 5 5 5 7 7 6 8 9 12 17 28 58 43 52 70 100 100 100 100 100 100 99 100 100 100 85 89 96 100 100 97 98 94
7 8 8 7 6 6 6 6 5 4 4 4 5 5 6 8 6 6 8 9 10 19 22 43 75 36 60 92 100 100 100 100 100 100 100 96 97 94 100 83 100 100 100 100 100
9 8 7 6 5 6 6 6 5 5 4 4 5 4 6 7 7 6 9 10 10 16 36 47 54 65 41 55 80 100 100 100 100 100 100 100 100 99 100 88 81 99 100 100 100
9 8 7 6 4 5 5 5 5 5 4 4 4 4 6 6 8 7 7 10 10 12 23 44 48 56 61 50 71 66 100 100 100 100 100 100 100 100 100 97 93 100 99 84 74
8 8 6 5 4 4 5 5 5 5 4 4 4 4 6 6 6 7 7 8 10 12 14 24 38 52 58 55 50 70 75 100 100 100 100 100 100 100 100 100 98 92 100 88 78
8 7 6 4 4 4 4 4 4 4 4 4 4 4 5 6 7 8 8 9 9 10 13 22 29 38 64 72 97 86 76 82 94 100 100 100 100 100 100 100 100 99 90 95 92
7 6 5 4 4 3 4 4 4 5 6 3 4 5 5 5 8 8 9 8 8 11 13 13 17 63 72 78 96 90 84 64 86 72 100 100 100 100 100 100 100 100 100 100 97
6 5 4 3 3 3 4 4 3 4 4 3 4 5 5 5 8 9 8 8 9 11 12 13 29 53 82 67 82 100 90 88 76 78 59 99 100 100 100 100 100 100 100 100 100
6 5 3 4 3 4 4 3 3 3 3 3 3 4 5 6 9 12 11 13 10 11 13 14 16 28 81 74 73 96 100 100 92 72 68 70 78 100 100 100 99 88 100 100 100
5 4 3 3 3 4 4 3 3 3 3 3 3 4 4 4 5 6 10 16 16 13 13 14 17 20 36 99 93 83 94 100 92 89 62 65 62 62 74 99 100 100 100 87 96
5 4 4 3 3 4 3 3 3 3 3 3 3 3 3 3 3 4 5 10 16 18 14 17 21 19 41 71 100 100 76 94 99 81 70 89 66 98 61 55 39 42 94 100 88
5 4 3 3 4 4 4 4 3 3 3 3 3 3 3 2 3 3 5 6 10 17 15 17 20 18 22 39 63 89 81 76 96 81 66 100 83 100 83 72 71 56 43 47 90
5 4 4 4 4 4 4 3 3 3 3 4 4 3 2 2 3 4 4 5 7 9 15 20 21 20 23 20 63 99 100 84 73 76 86 100 67 100 100 94 100 98 88 60 42
5 4 4 4 4 4 4 4 3 3 4 4 3 3 2 4 4 5 5 4 6 6 9 20 23 29 30 32 30 89 85 100 71 77 100 89 80 86 100 100 100 100 96 81 50
5 4 4 4 4 4 4 4 4 4 4 5 3 3 3 4 4 4 6 5 5 5 7 11 25 33 31 30 28 24 94 92 73 63 85 100 100 87 100 100 100 100 93 92 63
5 4 4 4 4 4 4 4 4 4 6 5 3 3 3 4 4 4 5 6 5 5 8 12 24 37 41 27 26 29 26 46 74 74 72 92 100 96 100 100 100 100 100 83 76
4 4 4 4 4 4 4 4 5 5 7 4 3 3 4 4 4 4 4 6 7 6 9 14 18 31 46 42 38 38 29 53 100 100 76 73 97 100 100 100 100 100 100 88 95
4 4 4 4 4 4 4 5 5 5 7 4 3 4 4 4 4 4 5 6 6 7 10 11 10 20 32 38 38 38 31 24 56 82 100 91 81 93 100 100 100 100 98 85 97
4 4 4 4 4 4 4 5 5 7 6 4 3 4 4 4 4 4 5 5 7 8 9 10 11 14 21 35 42 50 51 30 49 81 95 100 70 72 98 100 100 100 100 91 86
4 4 4 4 5 4 5 6 5 8 5 4 3 5 5 4 4 5 6 6 7 8 9 11 11 12 13 37 63 77 50 34 29 99 98 100 100 82 83 99 100 100 100 100 79
5 5 4 5 5 5 6 6 7 8 4 5 3 6 5 4 4 5 7 8 7 9 11 14 15 14 12 28 59 77 77 64 32 45 90 94 98 100 72 90 100 100 100 100 93
5 5 5 5 6 6 6 6 10 7 5 4 4 6 5 5 6 6 7 9 10 9 10 9 9 9 12 18 52 67 68 98 73 56 87 93 100 100 76 75 95 100 100 100 100

GFSSW_250_rhum_216.txt.gz
RH
21 10 8 7 6 6 4 5 5 6 6 5 5 4 4 5 5 5 5 5 6 8 17 16 18 16 14 15 16 16 42 92 95 100 100 98 96 100 97 82 65 59 54 49 44
17 8 7 6 5 4 4 5 4 5 5 5 5 5 5 5 5 6 5 5 6 8 11 18 15 16 14 14 16 15 18 95 100 100 100 72 83 100 100 98 75 65 59 54 48
13 8 6 6 5 5 5 4 4 4 5 5 5 5 5 5 5 6 6 5 6 7 8 13 15 16 17 15 15 15 25 39 100 100 100 89 83 100 100 100 95 73 61 57 57
8 10 7 7 6 5 5 4 4 4 4 5 5 5 5 5 6 5 5 5 6 6 8 10 13 15 23 18 18 18 28 52 98 99 100 87 96 95 100 100 100 90 74 61 61
11 10 7 7 6 5 5 4 4 4 4 5 5 5 5 6 6 4 4 5 5 6 8 10 12 18 21 24 22 20 36 73 90 83 91 100 84 96 100 100 100 100 87 86 70
13 8 8 7 6 5 5 4 4 4 4 4 4 5 5 6 5 4 4 5 6 6 7 9 15 29 29 23 18 72 69 100 93 100 100 87 92 88 94 98 97 100 100 100 97
10 8 8 6 6 5 5 4 4 4 4 4 4 4 5 6 5 4 5 5 5 6 7 9 12 13 36 30 26 68 100 67 88 91 100 99 99 100 100 98 100 100 87 98 100
8 8 8 6 5 5 5 4 4 4 4 4 4 4 6 6 5 5 5 5 5 6 7 8 10 14 20 41 24 40 100 97 75 100 100 100 100 99 96 91 100 100 100 100 100
7 8 7 6 5 5 4 4 4 4 4 4 4 4 5 5 5 5 5 6 5 5 6 8 9 17 22 30 38 20 86 100 100 83 100 100 100 100 96 100 99 100 95 80 98
7 8 6 5 5 4 4 4 4 4 4 3 4 4 5 4 5 5 5 6 6 6 7 7 8 10 15 24 25 38 33 100 100 100 100 100 100 97 86 98 94 99 100 84 74
7 6 6 5 4 4 3 3 4 4 3 3 4 4 4 4 4 4 5 6 6 7 7 8 10 10 28 54 68 66 41 100 100 100 100 100 100 100 99 90 91 90 97 91 82
6 6 6 5 4 3 3 3 4 4 4 3 4 4 4 4 5 4 5 6 6 8 10 8 8 21 29 51 62 56 70 55 100 100 100 100 100 100 100 98 93 96 100 99 87
5 6 5 4 3 3 3 3 3 4 4 3 3 4 4 4 5 4 5 6 7 8 8 10 13 14 20 40 47 74 72 99 96 100 100 100 100 100 100 100 94 90 100 98 94
5 6 5 4 3 3 2 3 3 3 3 3 3 3 4 4 5 5 6 7 7 8 9 11 12 12 18 25 58 71 100 98 89 75 86 100 100 100 100 100 99 97 91 96 95
6 5 4 4 3 3 3 3 3 3 3 3 3 3 4 4 5 6 6 6 9 10 8 10 13 12 14 26 74 89 100 100 100 100 95 72 98 100 100 100 100 100 100 100 100
5 5 4 3 3 3 3 3 3 3 3 2 2 3 3 4 5 5 6 6 7 9 11 10 16 16 17 20 81 100 88 100 100 99 78 85 63 97 100 100 100 100 100 100 100
5 4 4 4 3 3 3 3 3 3 3 2 2 3 3 4 4 4 4 4 5 6 11 16 15 15 18 17 26 99 86 78 100 100 79 87 78 97 93 95 100 100 100 100 100
5 4 4 3 3 3 3 3 3 3 3 3 3 3 4 3 3 3 3 4 4 6 11 16 18 16 16 14 20 38 74 50 54 84 85 94 77 100 100 90 93 99 98 100 100
5 4 4 4 3 4 3 3 3 3 3 3 3 4 4 3 3 4 4 4 4 4 7 11 19 23 27 27 26 21 23 75 77 54 98 90 86 100 100 98 100 100 100 90 95
5 5 4 4 4 4 3 3 4 3 3 4 4 4 4 3 3 4 5 6 6 5 6 6 16 28 31 33 28 26 31 59 82 73 62 92 100 100 100 100 92 98 96 83 68
5 5 4 4 4 4 4 4 4 3 4 4 4 5 3 3 3 4 4 5 6 6 6 6 10 18 37 30 27 29 24 21 40 52 54 64 100 100 100 100 100 100 99 97 80
6 4 4 4 4 4 4 4 4 4 4 4 5 4 4 3 4 5 4 4 5 6 6 6 9 15 31 42 42 36 27 25 27 44 52 59 79 100 100 100 100 100 100 97 99
5 4 4 4 4 4 4 4 5 4 5 5 6 4 4 3 5 5 4 4 5 6 7 7 8 13 18 42 50 48 36 27 22 28 74 99 100 99 100 100 100 100 97 96 100
5 4 5 5 4 4 4 5 5 5 6 7 6 4 4 4 5 5 5 4 4 5 7 8 10 12 14 29 56 47 44 36 30 22 27 61 61 89 100 100 100 100 100 95 96
5 5 6 5 5 5 5 5 6 6 6 8 5 4 4 5 6 4 5 6 6 5 6 8 10 12 13 21 42 68 54 44 34 28 26 64 84 95 100 100 100 100 100 100 97
5 6 6 6 6 6 6 6 7 7 7 10 5 5 3 6 6 5 5 5 5 7 6 8 10 10 13 16 29 53 54 46 35 24 25 32 91 100 100 100 100 100 100 100 100
6 6 6 6 7 6 6 7 7 7 9 9 5 5 4 6 6 7 7 6 7 7 7 10 10 9 11 14 16 22 71 72 55 37 36 32 51 89 99 91 100 100 100 100 100

GFSSW_250_rhum_219.txt.gz
RH
33 25 18 12 8 6 6 4 5 4 4 4 4 4 4 4 4 5 5 4 5 6 6 6 7 8 11 14 17 17 19 23 86 100 100 90 87 100 100 100 96 64 60 57 50
31 21 15 10 7 7 6 5 4 4 4 4 4 4 4 4 5 6 3 4 4 5 6 6 6 7 9 14 16 16 17 21 64 100 100 97 72 86 100 100 100 90 64 60 57
30 23 14 8 8 6 6 6 4 4 4 4 4 4 4 5 6 5 4 4 4 5 6 6 6 6 8 14 15 18 22 22 22 88 100 86 70 79 91 100 100 100 84 68 61
31 21 9 8 7 7 6 5 4 4 4 4 4 4 4 5 6 4 3 4 4 5 5 6 5 6 8 12 27 19 26 22 21 24 94 94 84 67 82 92 100 100 99 76 67
24 11 8 8 7 7 6 4 4 4 4 3 4 4 5 6 5 4 3 4 4 5 5 5 5 6 7 14 27 20 29 25 22 20 32 86 99 99 91 100 100 100 100 99 81
18 8 8 8 6 6 5 4 4 4 3 3 3 4 5 6 4 4 4 4 4 5 6 6 6 6 7 10 19 42 37 27 21 22 23 24 87 97 100 100 92 100 100 100 100
9 8 7 5 6 5 5 4 4 4 3 3 3 4 4 4 4 3 4 5 5 5 6 6 6 5 6 9 20 59 38 27 21 18 19 21 17 96 100 95 100 100 100 100 100
8 8 6 5 5 5 4 4 4 4 3 3 4 4 4 4 4 4 4 5 5 5 5 6 6 5 6 8 14 36 54 27 22 18 19 19 22 55 100 100 100 99 100 100 100
8 6 5 5 4 4 4 4 4 3 3 3 4 4 4 3 4 5 4 5 5 5 6 6 5 6 6 7 10 18 43 37 37 22 20 18 46 30 78 100 100 100 100 100 100
6 5 4 4 5 4 4 4 3 3 2 3 4 4 3 3 4 5 4 5 5 5 5 5 6 6 6 6 7 10 19 69 42 30 25 24 87 61 75 88 100 98 100 100 100
5 4 4 5 4 5 4 3 3 3 2 4 4 3 3 4 4 4 4 4 4 4 5 6 6 6 8 10 13 17 34 67 100 54 49 72 98 100 57 86 94 100 100 81 100
4 5 5 5 4 4 3 3 3 3 3 3 3 3 3 4 4 3 4 4 4 4 5 4 5 10 10 10 10 16 34 84 100 59 34 95 100 100 66 67 84 96 91 100 100
5 5 6 5 4 4 3 3 3 3 3 3 3 3 4 3 3 3 4 4 5 5 5 5 10 8 9 10 12 13 30 100 100 91 43 82 100 100 100 100 93 87 98 100 100
6 6 6 5 4 3 3 3 3 3 2 2 3 3 3 4 3 3 4 4 5 6 6 6 9 8 10 11 13 15 32 85 100 100 74 84 96 100 100 100 100 100 100 100 100
6 6 6 4 4 3 3 3 3 3 2 2 3 3 3 3 3 4 4 4 5 6 6 10 10 8 9 15 15 23 24 74 100 100 100 100 98 100 100 98 100 100 100 100 100
7 6 5 4 4 3 3 3 3 2 2 2 3 3 3 3 3 4 4 4 5 6 7 10 10 10 10 14 17 40 55 44 95 100 100 88 97 100 100 100 100 100 100 100 100
7 6 6 4 4 3 3 3 3 2 2 2 3 3 3 3 3 4 4 5 5 5 9 10 10 11 13 13 17 21 56 56 76 100 100 100 71 100 100 100 100 100 100 100 93
6 6 5 4 4 3 4 4 3 3 3 3 3 3 3 4 4 4 4 4 4 5 7 11 10 14 13 11 15 19 52 56 31 46 51 100 82 94 100 100 100 100 100 100 100
7 6 5 4 4 4 4 4 4 3 3 3 3 4 4 4 4 4 4 4 4 4 5 8 12 16 21 21 19 19 23 65 40 30 52 94 100 100 100 100 100 100 100 100 100
7 6 4 4 4 4 4 4 4 4 4 4 4 4 4 4 5 4 3 4 3 4 4 6 11 16 28 26 20 22 22 31 39 25 27 61 100 100 100 100 100 100 100 100 100
7 6 5 4 4 5 4 4 4 4 4 4 4 5 5 5 4 4 3 4 4 4 5 6 8 11 24 26 23 22 18 19 21 26 38 51 94 100 100 100 100 100 100 100 100
8 6 4 4 5 5 5 5 5 5 5 5 5 5 6 5 4 4 3 4 5 5 5 7 7 12 24 37 36 26 22 26 24 22 33 42 84 100 100 100 100 100 100 99 98
8 6 4 4 5 4 5 5 6 6 6 6 6 6 7 5 4 4 4 5 5 6 5 7 8 10 14 36 46 36 29 29 28 23 22 44 82 85 100 100 100 100 100 100 100
7 5 4 4 5 4 5 5 6 7 7 7 6 7 8 5 4 4 5 6 5 5 5 6 8 11 11 21 37 38 33 31 30 27 25 27 65 100 100 100 100 100 100 100 100
7 5 4 4 5 5 6 6 6 6 8 8 7 9 7 5 4 4 6 6 6 5 5 6 8 10 10 13 28 44 44 43 38 38 28 33 44 86 100 100 100 100 100 100 100
6 5 5 5 5 5 6 7 6 8 8 8 9 10 6 5 4 4 6 6 5 6 6 6 8 10 12 13 18 42 56 56 43 37 36 29 36 42 97 100 100 100 100 100 100
6 5 5 6 5 6 7 7 7 8 9 8 11 9 5 5 5 5 6 6 6 7 7 7 6 11 12 14 16 27 60 60 51 46 42 30 32 30 73 100 100 100 100 100 100